VHPAS WADD-WSSS

Flight info

Callsign VHPAS
Flight time N/A
Altitude 14000
Route SPIKO DCT TPN
Aircraft SR22/L-SDGRY/S

Departure

Time 2026-05-05 14:57
Airport Denpasar I Gusti Ngurah Rai International Airport (WADD)

Arrival

Time N/A
Airport Singapore Changi Airport (WSSS)
Time Latitude Longitude Altitude Speed Heading
2026-05-05 14:38 -8.74518 115.17624 22 ft 0 kts 358°
2026-05-05 14:52 -8.74517 115.17624 22 ft 0 kts 358°
2026-05-05 14:53 -8.74512 115.17622 22 ft 0 kts 154°
2026-05-05 14:53 -8.74559 115.17628 21 ft 12 kts 174°
2026-05-05 14:53 -8.74643 115.17606 19 ft 15 kts 264°
2026-05-05 14:53 -8.74649 115.17455 15 ft 26 kts 269°
2026-05-05 14:54 -8.74657 115.17232 12 ft 35 kts 267°
2026-05-05 14:54 -8.74667 115.16972 13 ft 39 kts 268°
2026-05-05 14:54 -8.74677 115.16689 16 ft 37 kts 268°
2026-05-05 14:54 -8.74687 115.16447 19 ft 33 kts 269°
2026-05-05 14:55 -8.74694 115.16190 18 ft 39 kts 268°
2026-05-05 14:55 -8.74712 115.15892 9 ft 43 kts 265°
2026-05-05 14:55 -8.74716 115.15603 9 ft 37 kts 264°
2026-05-05 14:55 -8.74738 115.15417 11 ft 13 kts 227°
2026-05-05 14:56 -8.74804 115.15396 14 ft 10 kts 174°
2026-05-05 14:56 -8.74884 115.15410 14 ft 13 kts 112°
2026-05-05 14:56 -8.74887 115.15559 13 ft 43 kts 86°
2026-05-05 14:56 -8.74870 115.16088 26 ft 98 kts 90°
2026-05-05 14:57 -8.74836 115.16740 404 ft 91 kts 90°
2026-05-05 14:57 -8.74570 115.17426 576 ft 115 kts 41°
2026-05-05 14:57 -8.73792 115.17439 885 ft 128 kts 348°
2026-05-05 14:57 -8.73006 115.16952 1126 ft 140 kts 310°
2026-05-05 14:58 -8.72642 115.16025 1381 ft 146 kts 281°
2026-05-05 14:58 -8.72444 115.15009 1623 ft 151 kts 284°
2026-05-05 14:58 -8.72063 115.14005 1867 ft 154 kts 298°
2026-05-05 14:58 -8.71505 115.13064 2112 ft 157 kts 306°
2026-05-05 14:59 -8.70870 115.12168 2363 ft 158 kts 310°
2026-05-05 14:59 -8.70193 115.11283 2628 ft 158 kts 311°
2026-05-05 14:59 -8.69510 115.10417 2892 ft 158 kts 311°
2026-05-05 14:59 -8.68819 115.09550 3155 ft 157 kts 312°
2026-05-05 15:00 -8.68139 115.08702 3415 ft 156 kts 312°
2026-05-05 15:00 -8.67681 115.08132 3590 ft 156 kts 312°
2026-05-05 15:00 -8.66762 115.06986 3942 ft 158 kts 313°
2026-05-05 15:00 -8.66079 115.06139 4202 ft 158 kts 312°
2026-05-05 15:01 -8.65375 115.05263 4469 ft 158 kts 312°
2026-05-05 15:01 -8.64913 115.04689 4644 ft 158 kts 313°
2026-05-05 15:01 -8.64218 115.03823 4910 ft 157 kts 313°
2026-05-05 15:01 -8.63536 115.02975 5169 ft 157 kts 312°
2026-05-05 15:02 -8.62851 115.02123 5425 ft 152 kts 313°
2026-05-05 15:02 -8.62195 115.01308 5682 ft 147 kts 312°
2026-05-05 15:02 -8.61560 115.00519 5937 ft 143 kts 311°
2026-05-05 15:02 -8.60940 114.99746 6188 ft 140 kts 312°
2026-05-05 15:03 -8.60335 114.98992 6437 ft 138 kts 311°
2026-05-05 15:03 -8.59732 114.98241 6697 ft 136 kts 311°
2026-05-05 15:03 -8.59142 114.97509 6944 ft 135 kts 311°
2026-05-05 15:03 -8.58543 114.96765 7134 ft 138 kts 310°
2026-05-05 15:04 -8.57930 114.96001 7330 ft 140 kts 311°
2026-05-05 15:04 -8.57307 114.95229 7520 ft 142 kts 311°
2026-05-05 15:04 -8.56684 114.94453 7710 ft 143 kts 311°
2026-05-05 15:04 -8.56050 114.93667 7898 ft 144 kts 311°
2026-05-05 15:05 -8.54780 114.92090 8275 ft 145 kts 310°
2026-05-05 15:05 -8.54145 114.91301 8461 ft 145 kts 310°
2026-05-05 15:05 -8.53507 114.90506 8646 ft 145 kts 310°
2026-05-05 15:06 -8.52873 114.89717 8832 ft 145 kts 310°
2026-05-05 15:06 -8.52243 114.88934 9020 ft 144 kts 310°
2026-05-05 15:06 -8.51612 114.88150 9208 ft 143 kts 310°
2026-05-05 15:06 -8.50979 114.87363 9392 ft 143 kts 310°
2026-05-05 15:07 -8.50353 114.86585 9580 ft 142 kts 310°
2026-05-05 15:07 -8.49731 114.85812 9765 ft 141 kts 310°
2026-05-05 15:07 -8.49116 114.85049 9955 ft 140 kts 310°
2026-05-05 15:07 -8.48500 114.84283 10145 ft 139 kts 310°
2026-05-05 15:08 -8.47893 114.83529 10332 ft 138 kts 310°
2026-05-05 15:08 -8.47287 114.82774 10525 ft 136 kts 310°
2026-05-05 15:08 -8.46691 114.82034 10712 ft 135 kts 310°
2026-05-05 15:08 -8.46102 114.81304 10903 ft 133 kts 309°
2026-05-05 15:09 -8.45519 114.80579 11091 ft 132 kts 310°
2026-05-05 15:09 -8.44945 114.79868 11277 ft 130 kts 309°
2026-05-05 15:09 -8.44369 114.79153 11466 ft 129 kts 310°
2026-05-05 15:09 -8.43807 114.78455 11654 ft 127 kts 310°
2026-05-05 15:10 -8.43249 114.77763 11843 ft 125 kts 310°
2026-05-05 15:10 -8.42702 114.77085 12030 ft 123 kts 309°
2026-05-05 15:10 -8.42163 114.76418 12217 ft 121 kts 309°
2026-05-05 15:10 -8.41639 114.75768 12397 ft 119 kts 309°
2026-05-05 15:11 -8.41116 114.75118 12567 ft 118 kts 309°
2026-05-05 15:11 -8.40594 114.74470 12692 ft 121 kts 310°
2026-05-05 15:11 -8.40049 114.73795 12825 ft 123 kts 309°
2026-05-05 15:11 -8.39503 114.73116 12949 ft 126 kts 310°
2026-05-05 15:12 -8.38946 114.72426 13074 ft 128 kts 310°
2026-05-05 15:12 -8.38378 114.71723 13198 ft 130 kts 309°
2026-05-05 15:12 -8.37798 114.71004 13319 ft 131 kts 310°
2026-05-05 15:12 -8.37219 114.70285 13439 ft 132 kts 309°
2026-05-05 15:13 -8.36638 114.69566 13557 ft 133 kts 310°
2026-05-05 15:13 -8.36045 114.68829 13676 ft 134 kts 310°
2026-05-05 15:13 -8.35454 114.68097 13794 ft 135 kts 310°
2026-05-05 15:13 -8.34858 114.67358 13914 ft 135 kts 309°
2026-05-05 15:14 -8.34253 114.66608 13969 ft 141 kts 310°
2026-05-05 15:14 -8.33609 114.65812 13974 ft 149 kts 309°
2026-05-05 15:14 -8.32936 114.64976 13973 ft 156 kts 309°
2026-05-05 15:14 -8.32241 114.64117 13971 ft 162 kts 309°
2026-05-05 15:15 -8.31517 114.63218 13970 ft 166 kts 310°
2026-05-05 15:15 -8.30775 114.62302 13971 ft 169 kts 310°
2026-05-05 15:15 -8.30025 114.61373 13968 ft 172 kts 310°
2026-05-05 15:15 -8.29274 114.60442 13965 ft 174 kts 310°
2026-05-05 15:16 -8.28504 114.59487 13969 ft 175 kts 310°
2026-05-05 15:16 -8.27727 114.58525 13962 ft 177 kts 310°
2026-05-05 15:16 -8.26951 114.57562 13959 ft 178 kts 310°
2026-05-05 15:16 -8.26162 114.56586 13954 ft 178 kts 310°
2026-05-05 15:17 -8.25378 114.55615 13953 ft 179 kts 310°
2026-05-05 15:17 -8.24591 114.54639 13950 ft 179 kts 310°
2026-05-05 15:17 -8.23799 114.53657 13950 ft 180 kts 310°
2026-05-05 15:17 -8.22998 114.52665 13951 ft 181 kts 310°
2026-05-05 15:18 -8.22203 114.51681 13949 ft 182 kts 310°
2026-05-05 15:18 -8.21398 114.50683 13944 ft 183 kts 310°
2026-05-05 15:18 -8.20591 114.49683 13942 ft 183 kts 310°
2026-05-05 15:18 -8.19788 114.48689 13944 ft 183 kts 310°
2026-05-05 15:19 -8.18971 114.47676 13941 ft 184 kts 310°
2026-05-05 15:19 -8.18162 114.46676 13948 ft 184 kts 310°
2026-05-05 15:19 -8.17358 114.45678 13949 ft 184 kts 310°
2026-05-05 15:19 -8.16542 114.44669 13949 ft 184 kts 310°
2026-05-05 15:20 -8.15735 114.43668 13960 ft 183 kts 310°
2026-05-05 15:20 -8.14923 114.42661 13965 ft 184 kts 310°
2026-05-05 15:20 -8.14113 114.41660 13960 ft 185 kts 310°
2026-05-05 15:20 -8.13299 114.40652 13965 ft 185 kts 310°
2026-05-05 15:21 -8.12488 114.39648 13967 ft 185 kts 310°
2026-05-05 15:21 -8.11674 114.38640 13966 ft 185 kts 310°
2026-05-05 15:21 -8.10857 114.37629 13969 ft 185 kts 310°
2026-05-05 15:21 -8.10045 114.36624 13981 ft 184 kts 310°
2026-05-05 15:22 -8.09233 114.35617 13988 ft 185 kts 310°
2026-05-05 15:22 -8.08413 114.34603 13991 ft 185 kts 310°
2026-05-05 15:22 -8.07597 114.33593 13996 ft 185 kts 310°
2026-05-05 15:22 -8.06784 114.32587 14003 ft 185 kts 310°
2026-05-05 15:23 -8.05975 114.31588 14007 ft 185 kts 310°
2026-05-05 15:23 -8.05154 114.30572 14012 ft 185 kts 310°
2026-05-05 15:23 -8.04339 114.29563 14020 ft 184 kts 310°
2026-05-05 15:23 -8.03532 114.28563 14032 ft 184 kts 310°
2026-05-05 15:24 -8.02715 114.27554 14041 ft 184 kts 310°
2026-05-05 15:24 -8.01904 114.26550 14047 ft 184 kts 310°
2026-05-05 15:24 -8.01097 114.25552 14055 ft 185 kts 310°
2026-05-05 15:24 -8.00283 114.24546 14053 ft 185 kts 310°
2026-05-05 15:25 -7.99459 114.23528 14047 ft 185 kts 310°
2026-05-05 15:25 -7.98649 114.22523 14048 ft 185 kts 310°
2026-05-05 15:25 -7.97829 114.21510 14052 ft 185 kts 310°
2026-05-05 15:25 -7.97013 114.20500 14049 ft 185 kts 310°
2026-05-05 15:26 -7.96202 114.19501 14048 ft 185 kts 310°
2026-05-05 15:26 -7.95395 114.18501 14046 ft 184 kts 310°
2026-05-05 15:26 -7.94575 114.17486 14045 ft 184 kts 310°
2026-05-05 15:26 -7.93772 114.16496 14048 ft 184 kts 310°
2026-05-05 15:27 -7.92950 114.15480 14044 ft 184 kts 310°
2026-05-05 15:27 -7.92140 114.14478 14034 ft 184 kts 310°
2026-05-05 15:27 -7.91328 114.13474 14032 ft 184 kts 310°
2026-05-05 15:27 -7.90519 114.12473 14027 ft 184 kts 310°
2026-05-05 15:28 -7.89705 114.11468 14019 ft 185 kts 310°
2026-05-05 15:28 -7.88887 114.10458 14015 ft 185 kts 310°
2026-05-05 15:28 -7.88074 114.09454 14012 ft 185 kts 310°
2026-05-05 15:28 -7.87255 114.08440 14010 ft 185 kts 310°
2026-05-05 15:29 -7.86436 114.07429 14019 ft 184 kts 310°
2026-05-05 15:29 -7.85628 114.06430 14021 ft 184 kts 310°
2026-05-05 15:29 -7.84814 114.05426 14007 ft 186 kts 310°
2026-05-05 15:29 -7.83997 114.04417 13997 ft 186 kts 310°
2026-05-05 15:30 -7.83176 114.03403 13988 ft 186 kts 310°
2026-05-05 15:30 -7.82348 114.02380 13990 ft 186 kts 310°
2026-05-05 15:30 -7.81529 114.01369 13988 ft 186 kts 310°
2026-05-05 15:30 -7.80716 114.00365 13985 ft 185 kts 310°
2026-05-05 15:31 -7.79904 113.99362 13987 ft 185 kts 310°
2026-05-05 15:31 -7.79081 113.98347 13978 ft 185 kts 310°
2026-05-05 15:31 -7.78272 113.97349 13981 ft 185 kts 310°
2026-05-05 15:31 -7.77487 113.96378 13975 ft 186 kts 310°
2026-05-05 15:32 -7.76663 113.95362 13969 ft 186 kts 310°
2026-05-05 15:32 -7.75842 113.94348 13970 ft 186 kts 310°
2026-05-05 15:32 -7.75025 113.93340 13953 ft 187 kts 310°
2026-05-05 15:32 -7.74191 113.92310 13957 ft 187 kts 310°
2026-05-05 15:33 -7.73369 113.91297 13951 ft 188 kts 310°
2026-05-05 15:33 -7.72532 113.90263 13939 ft 188 kts 310°
2026-05-05 15:33 -7.71705 113.89243 13942 ft 187 kts 310°
2026-05-05 15:33 -7.70868 113.88211 13944 ft 187 kts 310°
2026-05-05 15:34 -7.70045 113.87196 13942 ft 186 kts 310°
2026-05-05 15:34 -7.69218 113.86174 13947 ft 186 kts 310°
2026-05-05 15:34 -7.68378 113.85139 13949 ft 187 kts 310°
2026-05-05 15:34 -7.67557 113.84128 13939 ft 187 kts 310°
2026-05-05 15:35 -7.66732 113.83109 13940 ft 187 kts 310°
2026-05-05 15:35 -7.65914 113.82101 13950 ft 186 kts 310°
2026-05-05 15:35 -7.65086 113.81079 13953 ft 186 kts 310°
2026-05-05 15:35 -7.64272 113.80075 13957 ft 186 kts 310°
2026-05-05 15:36 -7.63453 113.79067 13957 ft 186 kts 310°
2026-05-05 15:36 -7.62628 113.78050 13957 ft 187 kts 310°
2026-05-05 15:36 -7.61796 113.77022 13955 ft 188 kts 310°
2026-05-05 15:36 -7.60971 113.76006 13941 ft 188 kts 310°
2026-05-05 15:37 -7.60139 113.74980 13935 ft 188 kts 310°
2026-05-05 15:37 -7.59309 113.73957 13932 ft 187 kts 310°
2026-05-05 15:37 -7.58479 113.72935 13939 ft 186 kts 310°
2026-05-05 15:37 -7.57657 113.71920 13952 ft 186 kts 310°
2026-05-05 15:38 -7.56830 113.70902 13942 ft 187 kts 310°
2026-05-05 15:38 -7.56005 113.69885 13945 ft 187 kts 310°
2026-05-05 15:38 -7.55169 113.68856 13937 ft 188 kts 310°
2026-05-05 15:38 -7.54348 113.67844 13930 ft 188 kts 310°
2026-05-05 15:39 -7.53507 113.66808 13936 ft 187 kts 310°
2026-05-05 15:39 -7.52680 113.65789 13940 ft 187 kts 310°
2026-05-05 15:39 -7.51860 113.64778 13939 ft 187 kts 310°
2026-05-05 15:39 -7.51029 113.63754 13935 ft 188 kts 310°
2026-05-05 15:40 -7.50198 113.62732 13937 ft 188 kts 310°
2026-05-05 15:40 -7.49378 113.61723 13930 ft 188 kts 310°
2026-05-05 15:40 -7.48546 113.60698 13932 ft 187 kts 310°
2026-05-05 15:40 -7.47716 113.59676 13938 ft 187 kts 310°
2026-05-05 15:41 -7.46896 113.58665 13942 ft 187 kts 310°
2026-05-05 15:41 -7.46061 113.57637 13932 ft 189 kts 310°
2026-05-05 15:41 -7.45234 113.56619 13923 ft 189 kts 310°
2026-05-05 15:41 -7.44399 113.55592 13925 ft 188 kts 310°
2026-05-05 15:42 -7.43544 113.54539 13927 ft 188 kts 310°
2026-05-05 15:42 -7.42711 113.53515 13928 ft 188 kts 310°
2026-05-05 15:42 -7.41887 113.52501 13932 ft 188 kts 310°
2026-05-05 15:42 -7.41049 113.51469 13921 ft 189 kts 310°
2026-05-05 15:43 -7.40212 113.50438 13917 ft 189 kts 310°
2026-05-05 15:43 -7.39387 113.49423 13913 ft 188 kts 310°
2026-05-05 15:43 -7.38544 113.48385 13913 ft 188 kts 310°
2026-05-05 15:43 -7.37724 113.47377 13920 ft 187 kts 310°
2026-05-05 15:44 -7.36899 113.46362 13923 ft 187 kts 310°
2026-05-05 15:44 -7.36072 113.45345 13934 ft 186 kts 310°
2026-05-05 15:44 -7.35249 113.44331 13937 ft 187 kts 310°
2026-05-05 15:44 -7.34418 113.43310 13925 ft 188 kts 310°
2026-05-05 15:45 -7.33573 113.42270 13931 ft 188 kts 310°
2026-05-05 15:45 -7.32747 113.41254 13926 ft 188 kts 310°
2026-05-05 15:45 -7.31911 113.40224 13924 ft 188 kts 310°
2026-05-05 15:45 -7.31073 113.39196 13922 ft 189 kts 310°
2026-05-05 15:46 -7.30235 113.38165 13929 ft 189 kts 310°
2026-05-05 15:46 -7.29400 113.37139 13912 ft 190 kts 310°
2026-05-05 15:46 -7.28546 113.36089 13920 ft 190 kts 310°
2026-05-05 15:46 -7.27706 113.35055 13914 ft 191 kts 310°
2026-05-05 15:47 -7.26832 113.33981 13893 ft 191 kts 311°
2026-05-05 15:47 -7.26257 113.33273 13889 ft 190 kts 310°
2026-05-05 15:47 -7.25138 113.31898 13891 ft 189 kts 310°
2026-05-05 15:47 -7.24292 113.30858 13888 ft 189 kts 310°
2026-05-05 15:48 -7.23465 113.29842 13895 ft 188 kts 310°
2026-05-05 15:48 -7.22629 113.28814 13895 ft 188 kts 311°
2026-05-05 15:48 -7.21806 113.27802 13907 ft 187 kts 310°
2026-05-05 15:48 -7.20975 113.26782 13914 ft 188 kts 310°
2026-05-05 15:49 -7.20143 113.25760 13912 ft 188 kts 311°
2026-05-05 15:49 -7.19291 113.24713 13907 ft 189 kts 311°
2026-05-05 15:49 -7.18437 113.23663 13912 ft 189 kts 311°
2026-05-05 15:49 -7.17601 113.22636 13890 ft 191 kts 311°
2026-05-05 15:50 -7.16766 113.21610 13888 ft 190 kts 311°
2026-05-05 15:50 -7.15925 113.20576 13887 ft 189 kts 311°
2026-05-05 15:50 -7.15084 113.19545 13896 ft 188 kts 311°
2026-05-05 15:50 -7.14243 113.18512 13915 ft 188 kts 310°
2026-05-05 15:51 -7.13408 113.17486 13910 ft 189 kts 311°
2026-05-05 15:51 -7.12571 113.16458 13891 ft 189 kts 311°
2026-05-05 15:51 -7.11732 113.15428 13905 ft 188 kts 311°
2026-05-05 15:51 -7.10880 113.14383 13907 ft 188 kts 311°
2026-05-05 15:52 -7.10050 113.13363 13905 ft 188 kts 311°
2026-05-05 15:52 -7.09217 113.12340 13915 ft 189 kts 311°
2026-05-05 15:52 -7.08375 113.11307 13905 ft 190 kts 311°
2026-05-05 15:52 -7.07545 113.10286 13893 ft 190 kts 311°
2026-05-05 15:53 -7.06674 113.09217 13910 ft 189 kts 311°
2026-05-05 15:53 -7.05818 113.08169 13900 ft 190 kts 311°
2026-05-05 15:53 -7.04983 113.07144 13894 ft 190 kts 311°
2026-05-05 15:53 -7.04118 113.06081 13892 ft 190 kts 311°
2026-05-05 15:54 -7.03268 113.05038 13895 ft 190 kts 311°
2026-05-05 15:54 -7.02400 113.03973 13895 ft 190 kts 311°
2026-05-05 15:54 -7.01568 113.02953 13902 ft 190 kts 311°
2026-05-05 15:54 -7.00729 113.01922 13892 ft 190 kts 311°
2026-05-05 15:55 -6.99884 113.00887 13896 ft 190 kts 311°
2026-05-05 15:55 -6.99052 112.99867 13903 ft 189 kts 311°
2026-05-05 15:55 -6.98196 112.98814 13900 ft 190 kts 311°
2026-05-05 15:55 -6.97351 112.97778 13894 ft 190 kts 311°
2026-05-05 15:56 -6.96512 112.96750 13889 ft 190 kts 311°
2026-05-05 15:56 -6.95674 112.95722 13891 ft 190 kts 311°
2026-05-05 15:56 -6.94831 112.94688 13893 ft 190 kts 311°
2026-05-05 15:56 -6.93984 112.93651 13893 ft 190 kts 311°
2026-05-05 15:57 -6.93144 112.92619 13890 ft 190 kts 311°
2026-05-05 15:57 -6.92294 112.91577 13889 ft 190 kts 311°
2026-05-05 15:57 -6.91449 112.90543 13882 ft 190 kts 311°
2026-05-05 15:57 -6.90611 112.89514 13886 ft 189 kts 311°
2026-05-05 15:58 -6.89778 112.88492 13885 ft 189 kts 311°
2026-05-05 15:58 -6.88937 112.87463 13886 ft 189 kts 311°
2026-05-05 15:58 -6.88104 112.86441 13885 ft 189 kts 311°
2026-05-05 15:58 -6.87261 112.85406 13887 ft 189 kts 311°
2026-05-05 15:59 -6.86427 112.84385 13886 ft 190 kts 311°
2026-05-05 15:59 -6.85585 112.83353 13883 ft 190 kts 311°
2026-05-05 15:59 -6.84740 112.82318 13884 ft 190 kts 311°
2026-05-05 15:59 -6.83908 112.81300 13883 ft 189 kts 311°
2026-05-05 16:00 -6.83066 112.80266 13884 ft 189 kts 311°
2026-05-05 16:00 -6.82232 112.79243 13887 ft 190 kts 311°
2026-05-05 16:00 -6.81386 112.78208 13887 ft 190 kts 311°
2026-05-05 16:00 -6.80553 112.77188 13882 ft 190 kts 311°
2026-05-05 16:01 -6.79713 112.76159 13882 ft 190 kts 311°
2026-05-05 16:01 -6.78870 112.75124 13883 ft 190 kts 311°
2026-05-05 16:01 -6.78030 112.74097 13877 ft 190 kts 311°
2026-05-05 16:01 -6.77185 112.73063 13882 ft 189 kts 311°
2026-05-05 16:02 -6.76344 112.72033 13882 ft 189 kts 311°
2026-05-05 16:02 -6.75510 112.71011 13879 ft 189 kts 311°
2026-05-05 16:02 -6.74666 112.69977 13880 ft 189 kts 311°
2026-05-05 16:02 -6.73835 112.68959 13881 ft 189 kts 311°
2026-05-05 16:03 -6.72996 112.67933 13882 ft 189 kts 311°
2026-05-05 16:03 -6.72167 112.66917 13880 ft 189 kts 311°
2026-05-05 16:03 -6.71332 112.65894 13880 ft 189 kts 311°
2026-05-05 16:03 -6.70489 112.64863 13881 ft 189 kts 311°
2026-05-05 16:04 -6.69654 112.63841 13880 ft 189 kts 311°
2026-05-05 16:04 -6.68826 112.62826 13881 ft 189 kts 311°
2026-05-05 16:04 -6.67988 112.61800 13880 ft 189 kts 311°
2026-05-05 16:04 -6.67144 112.60769 13880 ft 189 kts 311°
2026-05-05 16:05 -6.66314 112.59750 13879 ft 189 kts 311°
2026-05-05 16:05 -6.65475 112.58725 13878 ft 190 kts 311°
2026-05-05 16:05 -6.64632 112.57695 13876 ft 190 kts 311°
2026-05-05 16:05 -6.63781 112.56652 13882 ft 191 kts 311°
2026-05-05 16:06 -6.62941 112.55626 13882 ft 191 kts 311°
2026-05-05 16:06 -6.62095 112.54591 13883 ft 191 kts 311°
2026-05-05 16:06 -6.61247 112.53554 13881 ft 192 kts 311°
2026-05-05 16:06 -6.60401 112.52518 13880 ft 192 kts 311°
2026-05-05 16:07 -6.59551 112.51477 13877 ft 192 kts 311°
2026-05-05 16:07 -6.58696 112.50430 13876 ft 192 kts 311°
2026-05-05 16:07 -6.57853 112.49402 13879 ft 192 kts 311°
2026-05-05 16:07 -6.57003 112.48363 13878 ft 192 kts 311°
2026-05-05 16:08 -6.56158 112.47329 13879 ft 191 kts 311°
2026-05-05 16:08 -6.55311 112.46294 13876 ft 191 kts 311°
2026-05-05 16:08 -6.54459 112.45250 13878 ft 191 kts 311°
2026-05-05 16:08 -6.53618 112.44222 13876 ft 191 kts 311°
2026-05-05 16:09 -6.52764 112.43178 13874 ft 191 kts 311°
2026-05-05 16:09 -6.51915 112.42141 13878 ft 191 kts 311°
2026-05-05 16:09 -6.51070 112.41108 13878 ft 191 kts 311°
2026-05-05 16:09 -6.50229 112.40078 13880 ft 191 kts 311°
2026-05-05 16:10 -6.49379 112.39040 13878 ft 192 kts 311°
2026-05-05 16:10 -6.48529 112.38002 13875 ft 191 kts 311°
2026-05-05 16:10 -6.47682 112.36965 13877 ft 191 kts 311°
2026-05-05 16:10 -6.46834 112.35928 13875 ft 191 kts 311°
2026-05-05 16:11 -6.45978 112.34884 13875 ft 191 kts 311°
2026-05-05 16:11 -6.43430 112.31770 13876 ft 192 kts 311°
2026-05-05 16:12 -6.42586 112.30738 13874 ft 192 kts 311°
2026-05-05 16:12 -6.40883 112.28657 13873 ft 192 kts 311°
2026-05-05 16:13 -6.38345 112.25556 13869 ft 191 kts 311°
2026-05-05 16:13 -6.37497 112.24522 13871 ft 191 kts 311°
2026-05-05 16:13 -6.36656 112.23493 13870 ft 191 kts 311°
2026-05-05 16:14 -6.34952 112.21413 13870 ft 191 kts 311°
2026-05-05 16:14 -6.33256 112.19342 13871 ft 191 kts 311°
2026-05-05 16:15 -6.31563 112.17275 13873 ft 191 kts 311°
2026-05-05 16:15 -6.29868 112.15205 13869 ft 191 kts 311°
2026-05-05 16:16 -6.28166 112.13127 13866 ft 191 kts 311°
2026-05-05 16:16 -6.26473 112.11061 13866 ft 191 kts 311°
2026-05-05 16:17 -6.24776 112.08991 13869 ft 191 kts 311°
2026-05-05 16:17 -6.23923 112.07951 13871 ft 191 kts 311°
2026-05-05 16:18 -6.22230 112.05884 13865 ft 191 kts 311°
2026-05-05 16:18 -6.21377 112.04844 13868 ft 191 kts 311°
2026-05-05 16:18 -6.19693 112.02787 13868 ft 191 kts 311°
2026-05-05 16:19 -6.18838 112.01746 13869 ft 191 kts 311°
2026-05-05 16:19 -6.17987 112.00707 13869 ft 191 kts 311°
2026-05-05 16:19 -6.16285 111.98632 13862 ft 192 kts 311°
2026-05-05 16:20 -6.14588 111.96562 13865 ft 192 kts 311°
2026-05-05 16:20 -6.12793 111.94373 13865 ft 192 kts 311°
2026-05-05 16:21 -6.11045 111.92241 13866 ft 192 kts 311°
2026-05-05 16:22 -6.08479 111.89114 13864 ft 192 kts 311°
2026-05-05 16:22 -6.06757 111.87013 13864 ft 192 kts 311°
2026-05-05 16:23 -6.05054 111.84937 13863 ft 192 kts 311°
2026-05-05 16:23 -6.04199 111.83897 13865 ft 192 kts 311°
2026-05-05 16:23 -6.02494 111.81818 13862 ft 192 kts 311°
2026-05-05 16:24 -6.01637 111.80774 13862 ft 192 kts 311°
2026-05-05 16:24 -6.00777 111.79726 13866 ft 193 kts 311°
2026-05-05 16:24 -5.99068 111.77644 13861 ft 193 kts 311°
2026-05-05 16:25 -5.98221 111.76614 13862 ft 192 kts 311°
2026-05-05 16:25 -5.96496 111.74510 13863 ft 193 kts 311°
2026-05-05 16:25 -5.95629 111.73454 13865 ft 193 kts 311°
2026-05-05 16:26 -5.93922 111.71375 13862 ft 193 kts 311°
2026-05-05 16:26 -5.92217 111.69299 13865 ft 193 kts 311°
2026-05-05 16:27 -5.91360 111.68256 13862 ft 193 kts 311°
2026-05-05 16:27 -5.90503 111.67212 13863 ft 193 kts 311°
2026-05-05 16:27 -5.89621 111.66137 13862 ft 193 kts 311°
2026-05-05 16:27 -5.88759 111.65089 13863 ft 193 kts 311°
2026-05-05 16:28 -5.87910 111.64056 13863 ft 193 kts 311°
2026-05-05 16:28 -5.87051 111.63009 13863 ft 193 kts 311°
2026-05-05 16:28 -5.86196 111.61968 13863 ft 193 kts 311°
2026-05-05 16:28 -5.85338 111.60923 13863 ft 193 kts 311°
2026-05-05 16:29 -5.84476 111.59875 13862 ft 193 kts 311°
2026-05-05 16:29 -5.83620 111.58832 13863 ft 193 kts 311°
2026-05-05 16:29 -5.82760 111.57784 13863 ft 193 kts 311°
2026-05-05 16:29 -5.81907 111.56748 13863 ft 193 kts 311°
2026-05-05 16:30 -5.81040 111.55692 13864 ft 193 kts 311°
2026-05-05 16:30 -5.80176 111.54641 13864 ft 193 kts 311°
2026-05-05 16:30 -5.79315 111.53593 13863 ft 193 kts 311°
2026-05-05 16:30 -5.78462 111.52555 13863 ft 194 kts 311°
2026-05-05 16:31 -5.77601 111.51506 13864 ft 194 kts 311°
2026-05-05 16:31 -5.76732 111.50452 13864 ft 194 kts 311°
2026-05-05 16:31 -5.75877 111.49411 13863 ft 194 kts 311°
2026-05-05 16:31 -5.75011 111.48357 13863 ft 194 kts 311°
2026-05-05 16:32 -5.74160 111.47321 13863 ft 194 kts 311°
2026-05-05 16:32 -5.73290 111.46263 13863 ft 194 kts 311°
2026-05-05 16:32 -5.72434 111.45222 13864 ft 194 kts 311°
2026-05-05 16:32 -5.71571 111.44173 13864 ft 194 kts 311°
2026-05-05 16:33 -5.70707 111.43122 13864 ft 194 kts 311°
2026-05-05 16:33 -5.69839 111.42066 13863 ft 194 kts 311°
2026-05-05 16:33 -5.68985 111.41029 13863 ft 194 kts 311°
2026-05-05 16:33 -5.68124 111.39980 13864 ft 194 kts 311°
2026-05-05 16:34 -5.67259 111.38929 13864 ft 194 kts 311°
2026-05-05 16:34 -5.66400 111.37885 13863 ft 194 kts 311°
2026-05-05 16:34 -5.65547 111.36847 13863 ft 194 kts 311°
2026-05-05 16:34 -5.64680 111.35792 13863 ft 194 kts 311°
2026-05-05 16:35 -5.63819 111.34747 13863 ft 194 kts 311°
2026-05-05 16:35 -5.62954 111.33695 13862 ft 194 kts 311°
2026-05-05 16:35 -5.62092 111.32645 13861 ft 194 kts 311°
2026-05-05 16:35 -5.61210 111.31575 13862 ft 194 kts 311°
2026-05-05 16:36 -5.60342 111.30520 13862 ft 194 kts 311°
2026-05-05 16:36 -5.59491 111.29484 13862 ft 194 kts 311°
2026-05-05 16:36 -5.58630 111.28439 13862 ft 194 kts 311°
2026-05-05 16:36 -5.57762 111.27385 13862 ft 194 kts 311°
2026-05-05 16:37 -5.56903 111.26341 13861 ft 194 kts 311°
2026-05-05 16:37 -5.56030 111.25279 13861 ft 194 kts 311°
2026-05-05 16:37 -5.55147 111.24206 13862 ft 194 kts 311°
2026-05-05 16:37 -5.54281 111.23154 13861 ft 194 kts 311°
2026-05-05 16:38 -5.53426 111.22116 13862 ft 194 kts 311°
2026-05-05 16:38 -5.52560 111.21063 13862 ft 194 kts 311°
2026-05-05 16:38 -5.51709 111.20030 13862 ft 194 kts 311°
2026-05-05 16:38 -5.50841 111.18975 13862 ft 194 kts 311°
2026-05-05 16:39 -5.49985 111.17934 13862 ft 194 kts 311°
2026-05-05 16:39 -5.49122 111.16887 13862 ft 194 kts 311°
2026-05-05 16:39 -5.48256 111.15836 13862 ft 194 kts 311°
2026-05-05 16:39 -5.47392 111.14786 13861 ft 194 kts 311°
2026-05-05 16:40 -5.46542 111.13752 13862 ft 194 kts 311°
2026-05-05 16:40 -5.45672 111.12699 13862 ft 194 kts 311°
2026-05-05 16:40 -5.44805 111.11644 13862 ft 194 kts 311°
2026-05-05 16:40 -5.43949 111.10604 13862 ft 194 kts 311°
2026-05-05 16:41 -5.43086 111.09557 13862 ft 194 kts 311°
2026-05-05 16:41 -5.42217 111.08501 13862 ft 194 kts 311°
2026-05-05 16:41 -5.41362 111.07464 13863 ft 194 kts 311°
2026-05-05 16:41 -5.40492 111.06408 13861 ft 194 kts 311°
2026-05-05 16:42 -5.39623 111.05354 13862 ft 194 kts 311°
2026-05-05 16:42 -5.38767 111.04313 13861 ft 194 kts 311°
2026-05-05 16:42 -5.37901 111.03262 13862 ft 194 kts 311°
2026-05-05 16:42 -5.37040 111.02218 13862 ft 194 kts 311°
2026-05-05 16:43 -5.36171 111.01162 13862 ft 194 kts 311°
2026-05-05 16:43 -5.35313 111.00120 13862 ft 194 kts 311°
2026-05-05 16:43 -5.34438 110.99060 13862 ft 194 kts 311°
2026-05-05 16:43 -5.33572 110.98007 13862 ft 195 kts 311°
2026-05-05 16:44 -5.32709 110.96960 13863 ft 194 kts 311°
2026-05-05 16:44 -5.31816 110.95878 13862 ft 195 kts 311°
2026-05-05 16:44 -5.30833 110.94684 13862 ft 195 kts 311°
2026-05-05 16:44 -5.29909 110.93565 13862 ft 194 kts 311°
2026-05-05 16:45 -5.29044 110.92513 13863 ft 194 kts 311°
2026-05-05 16:45 -5.28182 110.91467 13862 ft 195 kts 311°
2026-05-05 16:45 -5.27312 110.90413 13863 ft 194 kts 311°
2026-05-05 16:45 -5.26459 110.89379 13862 ft 194 kts 311°
2026-05-05 16:46 -5.25553 110.88278 13862 ft 194 kts 311°
2026-05-05 16:46 -5.24583 110.87102 13862 ft 194 kts 311°
2026-05-05 16:46 -5.23723 110.86060 13862 ft 194 kts 311°
2026-05-05 16:46 -5.22799 110.84937 13862 ft 194 kts 311°
2026-05-05 16:47 -5.21927 110.83881 13862 ft 194 kts 311°
2026-05-05 16:47 -5.21074 110.82847 13863 ft 194 kts 311°
2026-05-05 16:47 -5.20171 110.81752 13863 ft 194 kts 311°
2026-05-05 16:47 -5.19304 110.80701 13862 ft 194 kts 311°
2026-05-05 16:48 -5.18443 110.79655 13862 ft 194 kts 311°
2026-05-05 16:48 -5.17577 110.78606 13863 ft 194 kts 311°
2026-05-05 16:48 -5.16717 110.77563 13863 ft 194 kts 311°
2026-05-05 16:48 -5.15855 110.76518 13862 ft 194 kts 311°
2026-05-05 16:49 -5.14986 110.75464 13863 ft 194 kts 311°
2026-05-05 16:49 -5.14130 110.74427 13863 ft 194 kts 311°
2026-05-05 16:49 -5.13260 110.73373 13863 ft 194 kts 311°
2026-05-05 16:49 -5.12403 110.72333 13862 ft 194 kts 311°
2026-05-05 16:50 -5.11532 110.71278 13863 ft 194 kts 311°
2026-05-05 16:50 -5.10672 110.70236 13863 ft 194 kts 311°
2026-05-05 16:50 -5.09776 110.69212 13853 ft 194 kts 311°
2026-05-05 16:50 -5.08921 110.68150 13863 ft 194 kts 311°
2026-05-05 16:51 -5.08075 110.67108 13863 ft 194 kts 311°
2026-05-05 16:51 -5.07212 110.66053 13863 ft 194 kts 311°
2026-05-05 16:51 -5.06333 110.65019 13861 ft 194 kts 311°
2026-05-05 16:51 -5.05487 110.63977 13863 ft 194 kts 311°
2026-05-05 16:52 -5.04627 110.62924 13863 ft 194 kts 311°
2026-05-05 16:52 -5.03766 110.61874 13863 ft 194 kts 311°
2026-05-05 16:52 -5.02900 110.60820 13863 ft 194 kts 311°
2026-05-05 16:52 -5.02031 110.59766 13863 ft 194 kts 311°
2026-05-05 16:53 -5.01176 110.58729 13863 ft 194 kts 311°
2026-05-05 16:53 -5.00305 110.57674 13863 ft 194 kts 311°
2026-05-05 16:53 -4.99448 110.56634 13863 ft 194 kts 311°
2026-05-05 16:53 -4.98586 110.55589 13863 ft 194 kts 311°
2026-05-05 16:54 -4.97717 110.54536 13863 ft 194 kts 311°
2026-05-05 16:54 -4.96857 110.53496 13863 ft 194 kts 311°
2026-05-05 16:54 -4.95989 110.52445 13863 ft 194 kts 311°
2026-05-05 16:54 -4.95127 110.51400 13863 ft 194 kts 311°
2026-05-05 16:55 -4.94264 110.50356 13863 ft 194 kts 311°
2026-05-05 16:55 -4.93393 110.49302 13863 ft 194 kts 311°
2026-05-05 16:55 -4.92533 110.48260 13863 ft 194 kts 311°
2026-05-05 16:55 -4.91669 110.47214 13863 ft 194 kts 311°
2026-05-05 16:56 -4.90799 110.46159 13863 ft 194 kts 311°
2026-05-05 16:56 -4.89939 110.45119 13863 ft 194 kts 311°
2026-05-05 16:56 -4.89082 110.44081 13863 ft 194 kts 311°
2026-05-05 16:56 -4.88102 110.43143 13844 ft 193 kts 325°
2026-05-05 16:57 -4.86945 110.42449 13849 ft 191 kts 338°
2026-05-05 16:57 -4.85693 110.42029 13852 ft 189 kts 348°
2026-05-05 16:57 -4.84586 110.41312 13818 ft 196 kts 307°
2026-05-05 16:57 -4.84116 110.40030 13835 ft 196 kts 286°
2026-05-05 16:58 -4.83675 110.38744 13838 ft 195 kts 294°
2026-05-05 16:58 -4.83069 110.37527 13838 ft 195 kts 301°
2026-05-05 16:58 -4.82360 110.36371 13839 ft 195 kts 305°
2026-05-05 16:58 -4.81587 110.35257 13833 ft 195 kts 308°
2026-05-05 16:59 -4.80771 110.34165 13827 ft 195 kts 309°
2026-05-05 16:59 -4.79931 110.33087 13828 ft 195 kts 310°
2026-05-05 16:59 -4.79085 110.32030 13832 ft 194 kts 311°
2026-05-05 16:59 -4.78237 110.30982 13827 ft 194 kts 311°
2026-05-05 17:00 -4.77372 110.29923 13823 ft 194 kts 311°
2026-05-05 17:00 -4.76515 110.28879 13816 ft 194 kts 311°
2026-05-05 17:00 -4.75648 110.27828 13825 ft 194 kts 311°
2026-05-05 17:00 -4.74791 110.26788 13824 ft 194 kts 311°
2026-05-05 17:01 -4.73927 110.25740 13806 ft 195 kts 311°
2026-05-05 17:01 -4.73071 110.24706 13818 ft 194 kts 311°
2026-05-05 17:01 -4.72202 110.23653 13812 ft 194 kts 311°
2026-05-05 17:01 -4.71338 110.22608 13814 ft 194 kts 311°
2026-05-05 17:02 -4.70478 110.21568 13808 ft 194 kts 312°
2026-05-05 17:02 -4.69611 110.20519 13807 ft 194 kts 311°
2026-05-05 17:02 -4.68747 110.19474 13803 ft 194 kts 311°
2026-05-05 17:02 -4.67884 110.18430 13800 ft 194 kts 311°
2026-05-05 17:03 -4.67025 110.17392 13807 ft 194 kts 311°
2026-05-05 17:03 -4.66170 110.16358 13808 ft 193 kts 311°
2026-05-05 17:03 -4.65311 110.15318 13802 ft 194 kts 311°
2026-05-05 17:03 -4.64446 110.14272 13799 ft 194 kts 311°
2026-05-05 17:04 -4.63582 110.13228 13796 ft 194 kts 311°
2026-05-05 17:04 -4.62713 110.12177 13794 ft 194 kts 311°
2026-05-05 17:04 -4.61860 110.11145 13795 ft 194 kts 311°
2026-05-05 17:04 -4.60996 110.10101 13799 ft 193 kts 311°
2026-05-05 17:05 -4.60128 110.09052 13799 ft 193 kts 311°
2026-05-05 17:05 -4.59268 110.08012 13795 ft 193 kts 311°
2026-05-05 17:05 -4.58409 110.06974 13792 ft 193 kts 311°
2026-05-05 17:05 -4.57536 110.05917 13786 ft 194 kts 311°
2026-05-05 17:06 -4.56676 110.04878 13787 ft 194 kts 311°
2026-05-05 17:06 -4.55815 110.03838 13791 ft 193 kts 311°
2026-05-05 17:06 -4.54962 110.02807 13790 ft 193 kts 311°
2026-05-05 17:06 -4.54098 110.01763 13788 ft 193 kts 311°
2026-05-05 17:07 -4.53242 110.00727 13782 ft 194 kts 311°
2026-05-05 17:07 -4.52377 109.99681 13776 ft 194 kts 311°
2026-05-05 17:07 -4.51521 109.98649 13781 ft 193 kts 311°
2026-05-05 17:07 -4.50648 109.97593 13775 ft 194 kts 312°
2026-05-05 17:08 -4.49787 109.96551 13771 ft 194 kts 311°
2026-05-05 17:08 -4.48927 109.95515 13780 ft 193 kts 311°
2026-05-05 17:08 -4.48063 109.94469 13772 ft 194 kts 311°
2026-05-05 17:08 -4.47209 109.93436 13770 ft 194 kts 311°
2026-05-05 17:09 -4.46344 109.92394 13778 ft 193 kts 311°
2026-05-05 17:09 -4.45482 109.91351 13769 ft 194 kts 311°
2026-05-05 17:09 -4.44620 109.90310 13770 ft 194 kts 311°
2026-05-05 17:09 -4.43752 109.89262 13772 ft 193 kts 311°
2026-05-05 17:10 -4.42899 109.88232 13773 ft 193 kts 311°
2026-05-05 17:10 -4.42031 109.87183 13770 ft 194 kts 311°
2026-05-05 17:10 -4.41179 109.86152 13763 ft 194 kts 311°
2026-05-05 17:10 -4.40316 109.85111 13764 ft 194 kts 311°
2026-05-05 17:11 -4.39453 109.84068 13764 ft 194 kts 311°
2026-05-05 17:11 -4.38586 109.83022 13766 ft 194 kts 311°
2026-05-05 17:11 -4.37719 109.81975 13765 ft 194 kts 311°
2026-05-05 17:11 -4.36868 109.80947 13768 ft 193 kts 311°
2026-05-05 17:12 -4.36005 109.79904 13768 ft 193 kts 312°
2026-05-05 17:12 -4.35141 109.78861 13766 ft 193 kts 311°
2026-05-05 17:12 -4.34275 109.77814 13766 ft 193 kts 311°
2026-05-05 17:12 -4.33416 109.76778 13757 ft 194 kts 312°
2026-05-05 17:13 -4.32552 109.75735 13765 ft 193 kts 311°
2026-05-05 17:13 -4.31701 109.74709 13766 ft 193 kts 311°
2026-05-05 17:13 -4.30835 109.73662 13759 ft 194 kts 311°
2026-05-05 17:13 -4.29971 109.72617 13758 ft 194 kts 311°
2026-05-05 17:14 -4.29114 109.71584 13761 ft 193 kts 311°
2026-05-05 17:14 -4.28248 109.70538 13758 ft 194 kts 311°
2026-05-05 17:14 -4.27379 109.69489 13760 ft 193 kts 311°
2026-05-05 17:14 -4.26519 109.68452 13760 ft 194 kts 311°
2026-05-05 17:15 -4.25663 109.67417 13753 ft 194 kts 312°
2026-05-05 17:15 -4.24791 109.66364 13753 ft 194 kts 311°
2026-05-05 17:15 -4.23936 109.65333 13752 ft 194 kts 311°
2026-05-05 17:15 -4.23072 109.64291 13755 ft 194 kts 311°
2026-05-05 17:16 -4.22203 109.63243 13758 ft 194 kts 311°
2026-05-05 17:16 -4.21339 109.62200 13766 ft 193 kts 311°
2026-05-05 17:16 -4.20427 109.61218 13772 ft 193 kts 313°
2026-05-05 17:16 -4.19597 109.60179 13805 ft 192 kts 310°
2026-05-05 17:17 -4.18756 109.59131 13840 ft 190 kts 311°
2026-05-05 17:17 -4.17924 109.58107 13860 ft 190 kts 311°
2026-05-05 17:17 -4.17075 109.57070 13863 ft 191 kts 311°
2026-05-05 17:17 -4.16235 109.56049 13864 ft 192 kts 311°
2026-05-05 17:18 -4.15371 109.55003 13864 ft 193 kts 311°
2026-05-05 17:18 -4.14515 109.53969 13863 ft 193 kts 311°
2026-05-05 17:18 -4.13654 109.52927 13864 ft 193 kts 312°
2026-05-05 17:18 -4.12791 109.51885 13864 ft 194 kts 312°
2026-05-05 17:19 -4.11928 109.50845 13864 ft 194 kts 311°
2026-05-05 17:19 -4.11064 109.49803 13863 ft 194 kts 311°
2026-05-05 17:19 -4.10208 109.48769 13863 ft 194 kts 312°
2026-05-05 17:19 -4.09344 109.47729 13863 ft 194 kts 312°
2026-05-05 17:20 -4.08477 109.46682 13863 ft 194 kts 311°
2026-05-05 17:20 -4.07609 109.45635 13863 ft 194 kts 311°
2026-05-05 17:20 -4.06745 109.44593 13863 ft 194 kts 311°
2026-05-05 17:20 -4.05879 109.43549 13865 ft 194 kts 311°
2026-05-05 17:21 -4.05025 109.42519 13864 ft 194 kts 311°
2026-05-05 17:21 -4.04157 109.41473 13863 ft 194 kts 311°
2026-05-05 17:21 -4.03292 109.40428 13863 ft 194 kts 312°
2026-05-05 17:22 -4.01561 109.38341 13864 ft 194 kts 311°
2026-05-05 17:22 -4.00691 109.37293 13863 ft 194 kts 312°
2026-05-05 17:22 -3.99837 109.36262 13863 ft 194 kts 311°
2026-05-05 17:22 -3.98970 109.35217 13864 ft 194 kts 311°
2026-05-05 17:23 -3.98101 109.34170 13861 ft 194 kts 312°
2026-05-05 17:23 -3.97232 109.33121 13861 ft 194 kts 312°
2026-05-05 17:23 -3.96377 109.32092 13862 ft 194 kts 312°
2026-05-05 17:23 -3.95510 109.31047 13861 ft 194 kts 311°
2026-05-05 17:24 -3.94644 109.30003 13860 ft 194 kts 312°
2026-05-05 17:24 -3.93775 109.28955 13861 ft 194 kts 311°
2026-05-05 17:24 -3.92921 109.27924 13861 ft 194 kts 312°
2026-05-05 17:24 -3.92051 109.26877 13860 ft 194 kts 312°
2026-05-05 17:25 -3.91183 109.25831 13859 ft 194 kts 312°
2026-05-05 17:25 -3.90607 109.25137 13860 ft 194 kts 312°
2026-05-05 17:25 -3.89450 109.23742 13861 ft 194 kts 312°
2026-05-05 17:25 -3.88593 109.22710 13862 ft 194 kts 312°
2026-05-05 17:26 -3.87725 109.21663 13860 ft 194 kts 312°
2026-05-05 17:26 -3.86863 109.20625 13860 ft 194 kts 311°
2026-05-05 17:26 -3.85995 109.19579 13859 ft 194 kts 312°
2026-05-05 17:26 -3.85127 109.18533 13859 ft 194 kts 312°
2026-05-05 17:27 -3.84257 109.17484 13859 ft 194 kts 312°
2026-05-05 17:27 -3.83394 109.16446 13859 ft 194 kts 311°
2026-05-05 17:27 -3.82525 109.15399 13858 ft 194 kts 311°
2026-05-05 17:27 -3.81667 109.14363 13858 ft 194 kts 312°
2026-05-05 17:28 -3.80795 109.13314 13859 ft 194 kts 312°
2026-05-05 17:28 -3.79933 109.12274 13857 ft 194 kts 312°
2026-05-05 17:28 -3.79061 109.11224 13856 ft 194 kts 311°
2026-05-05 17:28 -3.78203 109.10191 13856 ft 195 kts 312°
2026-05-05 17:29 -3.77334 109.09143 13856 ft 195 kts 312°
2026-05-05 17:29 -3.76470 109.08104 13856 ft 195 kts 312°
2026-05-05 17:29 -3.75600 109.07055 13857 ft 195 kts 312°
2026-05-05 17:29 -3.74726 109.06003 13857 ft 195 kts 311°
2026-05-05 17:30 -3.73866 109.04968 13857 ft 195 kts 311°
2026-05-05 17:30 -3.73002 109.03928 13856 ft 195 kts 311°
2026-05-05 17:30 -3.72133 109.02879 13855 ft 195 kts 311°
2026-05-05 17:30 -3.71259 109.01828 13856 ft 194 kts 311°
2026-05-05 17:31 -3.70399 109.00793 13858 ft 194 kts 311°
2026-05-05 17:31 -3.69536 108.99752 13858 ft 194 kts 311°
2026-05-05 17:31 -3.68660 108.98698 13858 ft 195 kts 311°
2026-05-05 17:31 -3.67796 108.97659 13856 ft 195 kts 311°
2026-05-05 17:32 -3.66924 108.96606 13855 ft 195 kts 311°
2026-05-05 17:32 -3.66061 108.95566 13855 ft 195 kts 312°
2026-05-05 17:32 -3.65188 108.94517 13855 ft 195 kts 312°
2026-05-05 17:32 -3.64318 108.93469 13856 ft 195 kts 311°
2026-05-05 17:33 -3.63450 108.92426 13855 ft 195 kts 312°
2026-05-05 17:33 -3.62577 108.91374 13854 ft 195 kts 311°
2026-05-05 17:33 -3.61712 108.90332 13853 ft 195 kts 312°
2026-05-05 17:33 -3.60845 108.89290 13855 ft 195 kts 311°
2026-05-05 17:34 -3.59979 108.88245 13856 ft 195 kts 312°
2026-05-05 17:34 -3.59107 108.87197 13857 ft 195 kts 312°
2026-05-05 17:34 -3.58234 108.86146 13855 ft 195 kts 311°
2026-05-05 17:34 -3.57375 108.85113 13852 ft 195 kts 311°
2026-05-05 17:35 -3.56498 108.84056 13852 ft 195 kts 311°
2026-05-05 17:35 -3.55628 108.83010 13854 ft 195 kts 312°
2026-05-05 17:35 -3.54769 108.81973 13853 ft 195 kts 312°
2026-05-05 17:35 -3.53903 108.80933 13854 ft 195 kts 312°
2026-05-05 17:36 -3.53028 108.79880 13857 ft 195 kts 311°
2026-05-05 17:36 -3.52154 108.78828 13855 ft 195 kts 311°
2026-05-05 17:36 -3.51284 108.77782 13857 ft 195 kts 311°
2026-05-05 17:36 -3.50420 108.76741 13855 ft 195 kts 311°
2026-05-05 17:37 -3.49547 108.75692 13855 ft 195 kts 311°
2026-05-05 17:37 -3.48966 108.74991 13855 ft 195 kts 311°
2026-05-05 17:37 -3.47808 108.73599 13856 ft 195 kts 311°
2026-05-05 17:37 -3.46943 108.72559 13856 ft 195 kts 311°
2026-05-05 17:38 -3.46079 108.71519 13857 ft 195 kts 312°
2026-05-05 17:38 -3.45202 108.70464 13858 ft 195 kts 312°
2026-05-05 17:38 -3.44330 108.69414 13854 ft 195 kts 311°
2026-05-05 17:38 -3.43464 108.68373 13856 ft 195 kts 311°
2026-05-05 17:39 -3.42587 108.67318 13857 ft 195 kts 311°
2026-05-05 17:39 -3.41723 108.66278 13854 ft 195 kts 312°
2026-05-05 17:39 -3.40848 108.65227 13852 ft 195 kts 311°
2026-05-05 17:39 -3.39977 108.64178 13854 ft 195 kts 311°
2026-05-05 17:40 -3.39116 108.63141 13853 ft 195 kts 311°
2026-05-05 17:40 -3.38245 108.62094 13856 ft 195 kts 311°
2026-05-05 17:40 -3.37374 108.61047 13859 ft 195 kts 312°
2026-05-05 17:40 -3.36515 108.60014 13860 ft 195 kts 312°
2026-05-05 17:41 -3.35635 108.58958 13859 ft 195 kts 311°
2026-05-05 17:41 -3.34771 108.57916 13859 ft 195 kts 312°
2026-05-05 17:41 -3.33892 108.56860 13854 ft 195 kts 311°
2026-05-05 17:41 -3.33031 108.55823 13852 ft 195 kts 311°
2026-05-05 17:42 -3.32158 108.54775 13854 ft 195 kts 311°
2026-05-05 17:42 -3.31292 108.53732 13856 ft 195 kts 311°
2026-05-05 17:42 -3.30429 108.52694 13860 ft 195 kts 312°
2026-05-05 17:42 -3.29557 108.51646 13860 ft 195 kts 311°
2026-05-05 17:43 -3.28683 108.50595 13857 ft 195 kts 312°
2026-05-05 17:43 -3.27807 108.49543 13858 ft 195 kts 311°
2026-05-05 17:43 -3.26943 108.48504 13857 ft 195 kts 312°
2026-05-05 17:43 -3.26066 108.47450 13855 ft 195 kts 311°
2026-05-05 17:44 -3.25206 108.46415 13853 ft 195 kts 311°
2026-05-05 17:44 -3.24333 108.45365 13862 ft 195 kts 311°
2026-05-05 17:44 -3.23471 108.44330 13859 ft 195 kts 311°
2026-05-05 17:44 -3.22595 108.43276 13856 ft 195 kts 311°
2026-05-05 17:45 -3.21734 108.42242 13857 ft 195 kts 311°
2026-05-05 17:45 -3.20863 108.41193 13856 ft 195 kts 311°
2026-05-05 17:45 -3.19987 108.40141 13858 ft 195 kts 311°
2026-05-05 17:45 -3.19122 108.39101 13856 ft 195 kts 311°
2026-05-05 17:46 -3.18253 108.38057 13857 ft 195 kts 311°
2026-05-05 17:46 -3.17379 108.37006 13858 ft 195 kts 311°
2026-05-05 17:46 -3.16507 108.35960 13861 ft 195 kts 311°
2026-05-05 17:46 -3.15642 108.34918 13862 ft 195 kts 312°
2026-05-05 17:47 -3.14763 108.33863 13859 ft 195 kts 312°
2026-05-05 17:47 -3.13867 108.32784 13857 ft 195 kts 311°
2026-05-05 17:47 -3.12996 108.31740 13853 ft 195 kts 311°
2026-05-05 17:47 -3.12126 108.30692 13854 ft 195 kts 312°
2026-05-05 17:48 -3.11263 108.29657 13854 ft 195 kts 312°
2026-05-05 17:48 -3.10392 108.28610 13857 ft 194 kts 311°
2026-05-05 17:48 -3.09522 108.27563 13855 ft 194 kts 312°
2026-05-05 17:48 -3.08662 108.26530 13858 ft 194 kts 311°
2026-05-05 17:49 -3.07801 108.25497 13861 ft 194 kts 311°
2026-05-05 17:49 -3.06932 108.24451 13858 ft 194 kts 311°
2026-05-05 17:49 -3.06064 108.23408 13856 ft 194 kts 312°
2026-05-05 17:49 -3.05192 108.22362 13861 ft 194 kts 312°
2026-05-05 17:50 -3.04334 108.21331 13859 ft 194 kts 312°
2026-05-05 17:50 -3.03457 108.20277 13857 ft 194 kts 311°
2026-05-05 17:50 -3.02598 108.19245 13858 ft 194 kts 311°
2026-05-05 17:50 -3.01728 108.18200 13863 ft 194 kts 312°
2026-05-05 17:51 -3.00866 108.17165 13862 ft 194 kts 312°
2026-05-05 17:51 -2.99995 108.16117 13860 ft 194 kts 311°
2026-05-05 17:51 -2.99133 108.15082 13861 ft 194 kts 311°
2026-05-05 17:51 -2.98258 108.14033 13863 ft 194 kts 311°
2026-05-05 17:52 -2.97398 108.12997 13863 ft 194 kts 311°
2026-05-05 17:52 -2.96536 108.11962 13865 ft 194 kts 312°
2026-05-05 17:52 -2.95676 108.10930 13865 ft 194 kts 312°
2026-05-05 17:52 -2.94801 108.09879 13868 ft 194 kts 312°
2026-05-05 17:53 -2.93938 108.08843 13865 ft 194 kts 311°
2026-05-05 17:53 -2.93079 108.07812 13865 ft 194 kts 312°
2026-05-05 17:53 -2.92211 108.06768 13865 ft 194 kts 312°
2026-05-05 17:53 -2.91342 108.05727 13865 ft 194 kts 311°
2026-05-05 17:54 -2.90483 108.04693 13867 ft 194 kts 312°
2026-05-05 17:54 -2.89604 108.03638 13864 ft 194 kts 312°
2026-05-05 17:54 -2.88639 108.02480 13867 ft 193 kts 311°
2026-05-05 17:54 -2.87674 108.01319 13870 ft 194 kts 312°
2026-05-05 17:55 -2.86702 108.00153 13869 ft 194 kts 312°
2026-05-05 17:55 -2.85830 107.99107 13871 ft 194 kts 311°
2026-05-05 17:55 -2.84961 107.98062 13869 ft 194 kts 311°
2026-05-05 17:55 -2.84102 107.97033 13862 ft 193 kts 312°
2026-05-05 17:56 -2.83231 107.95985 13865 ft 193 kts 312°
2026-05-05 17:56 -2.82370 107.94953 13864 ft 193 kts 311°
2026-05-05 17:56 -2.81513 107.93923 13866 ft 193 kts 312°
2026-05-05 17:56 -2.80643 107.92879 13868 ft 193 kts 312°
2026-05-05 17:57 -2.79789 107.91854 13864 ft 194 kts 312°
2026-05-05 17:57 -2.78920 107.90810 13861 ft 193 kts 312°
2026-05-05 17:57 -2.78064 107.89784 13861 ft 193 kts 311°
2026-05-05 17:57 -2.77198 107.88744 13857 ft 193 kts 311°
2026-05-05 17:58 -2.76335 107.87706 13863 ft 193 kts 311°
2026-05-05 17:58 -2.75483 107.86684 13861 ft 193 kts 311°
2026-05-05 17:58 -2.74614 107.85641 13859 ft 193 kts 311°
2026-05-05 17:58 -2.73762 107.84618 13860 ft 193 kts 311°
2026-05-05 17:59 -2.72896 107.83580 13860 ft 193 kts 311°
2026-05-05 17:59 -2.72042 107.82554 13862 ft 193 kts 312°
2026-05-05 17:59 -2.71178 107.81516 13860 ft 193 kts 311°
2026-05-05 17:59 -2.70311 107.80476 13859 ft 193 kts 311°
2026-05-05 18:00 -2.69449 107.79443 13856 ft 193 kts 311°
2026-05-05 18:00 -2.68595 107.78419 13852 ft 193 kts 311°
2026-05-05 18:00 -2.67731 107.77380 13855 ft 192 kts 312°
2026-05-05 18:00 -2.66879 107.76358 13855 ft 192 kts 311°
2026-05-05 18:01 -2.66012 107.75317 13854 ft 193 kts 311°
2026-05-05 18:01 -2.65157 107.74290 13853 ft 193 kts 311°
2026-05-05 18:01 -2.64294 107.73258 13852 ft 192 kts 311°
2026-05-05 18:01 -2.63444 107.72237 13852 ft 192 kts 311°
2026-05-05 18:02 -2.62581 107.71200 13856 ft 192 kts 311°
2026-05-05 18:02 -2.61719 107.70164 13850 ft 192 kts 311°
2026-05-05 18:02 -2.60862 107.69139 13849 ft 192 kts 311°
2026-05-05 18:02 -2.60007 107.68111 13852 ft 192 kts 311°
2026-05-05 18:03 -2.59151 107.67084 13851 ft 192 kts 311°
2026-05-05 18:03 -2.58297 107.66062 13849 ft 192 kts 311°
2026-05-05 18:03 -2.57440 107.65032 13849 ft 192 kts 311°
2026-05-05 18:03 -2.56584 107.64005 13849 ft 192 kts 311°
2026-05-05 18:04 -2.55723 107.62974 13851 ft 192 kts 311°
2026-05-05 18:04 -2.54874 107.61954 13849 ft 192 kts 311°
2026-05-05 18:04 -2.54014 107.60924 13850 ft 192 kts 311°
2026-05-05 18:04 -2.53152 107.59889 13846 ft 192 kts 311°
2026-05-05 18:05 -2.52304 107.58871 13848 ft 192 kts 311°
2026-05-05 18:05 -2.51445 107.57839 13848 ft 192 kts 311°
2026-05-05 18:05 -2.50586 107.56809 13849 ft 192 kts 311°
2026-05-05 18:05 -2.49727 107.55779 13849 ft 192 kts 311°
2026-05-05 18:06 -2.48878 107.54761 13847 ft 192 kts 311°
2026-05-05 18:06 -2.48592 107.54417 13848 ft 192 kts 311°
2026-05-05 18:06 -2.47167 107.52711 13847 ft 192 kts 311°
2026-05-05 18:06 -2.46307 107.51676 13845 ft 192 kts 311°
2026-05-05 18:07 -2.45454 107.50656 13847 ft 191 kts 311°
2026-05-05 18:07 -2.44595 107.49625 13845 ft 191 kts 311°
2026-05-05 18:07 -2.43741 107.48600 13845 ft 191 kts 311°
2026-05-05 18:07 -2.42890 107.47580 13845 ft 191 kts 311°
2026-05-05 18:08 -2.42030 107.46549 13846 ft 191 kts 311°
2026-05-05 18:08 -2.41184 107.45534 13846 ft 191 kts 311°
2026-05-05 18:08 -2.40324 107.44500 13844 ft 191 kts 311°
2026-05-05 18:08 -2.39476 107.43486 13846 ft 191 kts 311°
2026-05-05 18:09 -2.38620 107.42459 13846 ft 191 kts 311°
2026-05-05 18:09 -2.37763 107.41429 13846 ft 191 kts 311°
2026-05-05 18:09 -2.36903 107.40400 13846 ft 191 kts 311°
2026-05-05 18:09 -2.36056 107.39384 13845 ft 191 kts 311°
2026-05-05 18:10 -2.35198 107.38355 13845 ft 191 kts 311°
2026-05-05 18:10 -2.34338 107.37324 13844 ft 191 kts 311°
2026-05-05 18:10 -2.33481 107.36297 13844 ft 191 kts 311°
2026-05-05 18:10 -2.32629 107.35276 13844 ft 191 kts 311°
2026-05-05 18:11 -2.31784 107.34263 13843 ft 191 kts 311°
2026-05-05 18:11 -2.30899 107.33202 13845 ft 191 kts 311°
2026-05-05 18:11 -2.29976 107.32093 13844 ft 191 kts 311°
2026-05-05 18:11 -2.29079 107.31018 13842 ft 191 kts 311°
2026-05-05 18:12 -2.28226 107.29997 13842 ft 191 kts 311°
2026-05-05 18:12 -2.27382 107.28984 13843 ft 191 kts 311°
2026-05-05 18:12 -2.26526 107.27960 13842 ft 191 kts 311°
2026-05-05 18:12 -2.25670 107.26933 13842 ft 191 kts 311°
2026-05-05 18:13 -2.24829 107.25923 13842 ft 191 kts 311°
2026-05-05 18:13 -2.23976 107.24900 13842 ft 191 kts 311°
2026-05-05 18:13 -2.23119 107.23875 13843 ft 191 kts 311°
2026-05-05 18:13 -2.22267 107.22853 13842 ft 191 kts 311°
2026-05-05 18:14 -2.21420 107.21837 13841 ft 191 kts 311°
2026-05-05 18:14 -2.20568 107.20818 13841 ft 191 kts 311°
2026-05-05 18:14 -2.19713 107.19791 13842 ft 191 kts 311°
2026-05-05 18:14 -2.18864 107.18775 13842 ft 190 kts 311°
2026-05-05 18:15 -2.18014 107.17756 13842 ft 190 kts 311°
2026-05-05 18:15 -2.17171 107.16742 13841 ft 191 kts 311°
2026-05-05 18:15 -2.16312 107.15717 13842 ft 190 kts 311°
2026-05-05 18:15 -2.15461 107.14693 13841 ft 191 kts 311°
2026-05-05 18:16 -2.14617 107.13684 13842 ft 190 kts 311°
2026-05-05 18:16 -2.13758 107.12654 13842 ft 191 kts 311°
2026-05-05 18:16 -2.12917 107.11647 13842 ft 190 kts 311°
2026-05-05 18:16 -2.12062 107.10622 13842 ft 190 kts 311°
2026-05-05 18:17 -2.11216 107.09609 13842 ft 190 kts 311°
2026-05-05 18:17 -2.10367 107.08591 13841 ft 190 kts 311°
2026-05-05 18:17 -2.09509 107.07562 13842 ft 190 kts 311°
2026-05-05 18:17 -2.08668 107.06554 13842 ft 190 kts 311°
2026-05-05 18:18 -2.07812 107.05529 13841 ft 190 kts 311°
2026-05-05 18:18 -2.06970 107.04519 13842 ft 190 kts 311°
2026-05-05 18:18 -2.06116 107.03495 13841 ft 191 kts 311°
2026-05-05 18:18 -2.05260 107.02471 13842 ft 190 kts 311°
2026-05-05 18:19 -2.04409 107.01454 13842 ft 190 kts 311°
2026-05-05 18:19 -2.03555 107.00429 13844 ft 190 kts 311°
2026-05-05 18:19 -2.02711 106.99416 13843 ft 190 kts 311°
2026-05-05 18:19 -2.01856 106.98393 13840 ft 190 kts 311°
2026-05-05 18:20 -2.01011 106.97380 13841 ft 190 kts 311°
2026-05-05 18:20 -2.00159 106.96358 13840 ft 190 kts 311°
2026-05-05 18:20 -1.99305 106.95335 13843 ft 190 kts 310°
2026-05-05 18:20 -1.98453 106.94317 13842 ft 190 kts 311°
2026-05-05 18:21 -1.97612 106.93308 13842 ft 190 kts 311°
2026-05-05 18:21 -1.96755 106.92280 13846 ft 191 kts 311°
2026-05-05 18:21 -1.95910 106.91267 13843 ft 191 kts 311°
2026-05-05 18:21 -1.95062 106.90253 13839 ft 191 kts 310°
2026-05-05 18:22 -1.94204 106.89226 13841 ft 190 kts 310°
2026-05-05 18:22 -1.93360 106.88212 13842 ft 190 kts 311°
2026-05-05 18:22 -1.92502 106.87186 13841 ft 191 kts 311°
2026-05-05 18:22 -1.91657 106.86174 13842 ft 191 kts 311°
2026-05-05 18:23 -1.90799 106.85147 13841 ft 191 kts 311°
2026-05-05 18:23 -1.89943 106.84122 13844 ft 190 kts 311°
2026-05-05 18:23 -1.89100 106.83112 13840 ft 190 kts 311°
2026-05-05 18:23 -1.88248 106.82090 13840 ft 190 kts 311°
2026-05-05 18:24 -1.87390 106.81062 13843 ft 190 kts 311°
2026-05-05 18:24 -1.86540 106.80045 13844 ft 190 kts 311°
2026-05-05 18:24 -1.85685 106.79020 13846 ft 191 kts 311°
2026-05-05 18:24 -1.84837 106.78005 13845 ft 191 kts 311°
2026-05-05 18:25 -1.83982 106.76981 13839 ft 191 kts 311°
2026-05-05 18:25 -1.83414 106.76302 13843 ft 191 kts 311°
2026-05-05 18:25 -1.82277 106.74937 13842 ft 191 kts 311°
2026-05-05 18:25 -1.81422 106.73914 13841 ft 191 kts 311°
2026-05-05 18:26 -1.80574 106.72899 13842 ft 191 kts 311°
2026-05-05 18:26 -1.79720 106.71875 13844 ft 191 kts 311°
2026-05-05 18:26 -1.78873 106.70861 13843 ft 191 kts 311°
2026-05-05 18:26 -1.78013 106.69833 13842 ft 191 kts 311°
2026-05-05 18:27 -1.77166 106.68819 13842 ft 191 kts 311°
2026-05-05 18:27 -1.76308 106.67791 13840 ft 191 kts 310°
2026-05-05 18:27 -1.75461 106.66777 13840 ft 191 kts 311°
2026-05-05 18:27 -1.74608 106.65754 13843 ft 191 kts 311°
2026-05-05 18:28 -1.72901 106.63711 13842 ft 191 kts 311°
2026-05-05 18:28 -1.72054 106.62697 13843 ft 191 kts 311°
2026-05-05 18:28 -1.71194 106.61665 13839 ft 191 kts 311°
2026-05-05 18:29 -1.70346 106.60651 13848 ft 191 kts 311°
2026-05-05 18:29 -1.69491 106.59628 13842 ft 191 kts 311°
2026-05-05 18:29 -1.68633 106.58600 13840 ft 191 kts 311°
2026-05-05 18:29 -1.67786 106.57584 13840 ft 191 kts 311°
2026-05-05 18:30 -1.66933 106.56565 13843 ft 191 kts 311°
2026-05-05 18:30 -1.66077 106.55539 13842 ft 191 kts 311°
2026-05-05 18:30 -1.65227 106.54523 13845 ft 191 kts 311°
2026-05-05 18:30 -1.64369 106.53493 13843 ft 191 kts 311°
2026-05-05 18:31 -1.63522 106.52480 13845 ft 191 kts 311°
2026-05-05 18:31 -1.62661 106.51450 13841 ft 191 kts 311°
2026-05-05 18:31 -1.61803 106.50423 13843 ft 191 kts 311°
2026-05-05 18:31 -1.60954 106.49406 13842 ft 191 kts 311°
2026-05-05 18:32 -1.60096 106.48379 13843 ft 191 kts 311°
2026-05-05 18:32 -1.59246 106.47361 13843 ft 191 kts 311°
2026-05-05 18:32 -1.58393 106.46339 13846 ft 192 kts 311°
2026-05-05 18:32 -1.57530 106.45308 13842 ft 192 kts 311°
2026-05-05 18:33 -1.56672 106.44280 13840 ft 191 kts 311°
2026-05-05 18:33 -1.55827 106.43268 13843 ft 191 kts 311°
2026-05-05 18:33 -1.54970 106.42242 13844 ft 191 kts 311°
2026-05-05 18:33 -1.54115 106.41219 13844 ft 191 kts 311°
2026-05-05 18:34 -1.53254 106.40187 13843 ft 192 kts 311°
2026-05-05 18:34 -1.52401 106.39167 13840 ft 192 kts 311°
2026-05-05 18:34 -1.51539 106.38136 13843 ft 191 kts 311°
2026-05-05 18:34 -1.50680 106.37109 13842 ft 191 kts 311°
2026-05-05 18:35 -1.49836 106.36097 13842 ft 191 kts 311°
2026-05-05 18:35 -1.48974 106.35065 13844 ft 191 kts 311°
2026-05-05 18:35 -1.48103 106.34022 13841 ft 192 kts 311°
2026-05-05 18:35 -1.47247 106.32997 13841 ft 192 kts 311°
2026-05-05 18:36 -1.46351 106.31926 13837 ft 192 kts 311°
2026-05-05 18:36 -1.45430 106.30822 13840 ft 191 kts 311°
2026-05-05 18:36 -1.44530 106.29745 13844 ft 192 kts 311°
2026-05-05 18:36 -1.43682 106.28730 13844 ft 192 kts 311°
2026-05-05 18:37 -1.42819 106.27698 13842 ft 192 kts 311°
2026-05-05 18:37 -1.41961 106.26672 13839 ft 192 kts 311°
2026-05-05 18:37 -1.41106 106.25648 13845 ft 192 kts 311°
2026-05-05 18:37 -1.40254 106.24628 13843 ft 192 kts 311°
2026-05-05 18:38 -1.39390 106.23593 13839 ft 192 kts 311°
2026-05-05 18:38 -1.38538 106.22574 13841 ft 192 kts 311°
2026-05-05 18:38 -1.37681 106.21548 13844 ft 192 kts 311°
2026-05-05 18:38 -1.36825 106.20525 13839 ft 192 kts 311°
2026-05-05 18:39 -1.35969 106.19500 13839 ft 192 kts 311°
2026-05-05 18:39 -1.35106 106.18468 13838 ft 192 kts 311°
2026-05-05 18:39 -1.34256 106.17449 13840 ft 191 kts 311°
2026-05-05 18:39 -1.33393 106.16417 13840 ft 192 kts 311°
2026-05-05 18:40 -1.32540 106.15395 13846 ft 192 kts 311°
2026-05-05 18:40 -1.31687 106.14376 13842 ft 192 kts 311°
2026-05-05 18:40 -1.30827 106.13345 13840 ft 192 kts 311°
2026-05-05 18:40 -1.29960 106.12308 13836 ft 192 kts 311°
2026-05-05 18:41 -1.29108 106.11289 13845 ft 192 kts 311°
2026-05-05 18:41 -1.28245 106.10258 13843 ft 192 kts 311°
2026-05-05 18:41 -1.27385 106.09228 13838 ft 192 kts 311°
2026-05-05 18:41 -1.26533 106.08208 13834 ft 192 kts 311°
2026-05-05 18:42 -1.25665 106.07170 13844 ft 192 kts 311°
2026-05-05 18:42 -1.24813 106.06152 13842 ft 192 kts 311°
2026-05-05 18:42 -1.23960 106.05128 13842 ft 193 kts 311°
2026-05-05 18:42 -1.23094 106.04094 13833 ft 192 kts 311°
2026-05-05 18:43 -1.22240 106.03072 13847 ft 192 kts 311°
2026-05-05 18:43 -1.21371 106.02031 13847 ft 193 kts 311°
2026-05-05 18:43 -1.20513 106.01006 13839 ft 193 kts 311°
2026-05-05 18:43 -1.19646 105.99966 13841 ft 193 kts 311°
2026-05-05 18:44 -1.18781 105.98933 13842 ft 193 kts 311°
2026-05-05 18:44 -1.17926 105.97910 13839 ft 193 kts 311°
2026-05-05 18:44 -1.17061 105.96876 13837 ft 193 kts 311°
2026-05-05 18:44 -1.16197 105.95841 13835 ft 192 kts 311°
2026-05-05 18:45 -1.15341 105.94817 13840 ft 192 kts 311°
2026-05-05 18:45 -1.14479 105.93785 13841 ft 193 kts 311°
2026-05-05 18:45 -1.13624 105.92761 13845 ft 193 kts 311°
2026-05-05 18:45 -1.12752 105.91718 13841 ft 194 kts 311°
2026-05-05 18:46 -1.11893 105.90693 13841 ft 193 kts 311°
2026-05-05 18:46 -1.11031 105.89661 13834 ft 194 kts 311°
2026-05-05 18:46 -1.10161 105.88618 13827 ft 193 kts 311°
2026-05-05 18:46 -1.09301 105.87590 13828 ft 193 kts 311°
2026-05-05 18:47 -1.08434 105.86552 13825 ft 194 kts 311°
2026-05-05 18:47 -1.07573 105.85523 13823 ft 194 kts 312°
2026-05-05 18:47 -1.06703 105.84482 13821 ft 194 kts 312°
2026-05-05 18:47 -1.05836 105.83446 13821 ft 193 kts 312°
2026-05-05 18:48 -1.04976 105.82419 13819 ft 193 kts 311°
2026-05-05 18:48 -1.04108 105.81379 13818 ft 193 kts 311°
2026-05-05 18:48 -1.03251 105.80351 13820 ft 193 kts 312°
2026-05-05 18:48 -1.02389 105.79321 13822 ft 193 kts 312°
2026-05-05 18:49 -1.01520 105.78283 13821 ft 193 kts 312°
2026-05-05 18:49 -1.00659 105.77252 13822 ft 193 kts 312°
2026-05-05 18:49 -0.99795 105.76220 13822 ft 193 kts 311°
2026-05-05 18:49 -0.98935 105.75191 13822 ft 193 kts 312°
2026-05-05 18:50 -0.98063 105.74149 13824 ft 193 kts 312°
2026-05-05 18:50 -0.97204 105.73123 13825 ft 193 kts 311°
2026-05-05 18:50 -0.96329 105.72076 13820 ft 193 kts 311°
2026-05-05 18:50 -0.95471 105.71049 13820 ft 193 kts 311°
2026-05-05 18:51 -0.94606 105.70013 13821 ft 193 kts 311°
2026-05-05 18:51 -0.93744 105.68981 13822 ft 193 kts 311°
2026-05-05 18:51 -0.92885 105.67955 13821 ft 194 kts 311°
2026-05-05 18:51 -0.92015 105.66913 13822 ft 194 kts 311°
2026-05-05 18:52 -0.91149 105.65877 13822 ft 195 kts 311°
2026-05-05 18:52 -0.90272 105.64829 13823 ft 195 kts 311°
2026-05-05 18:52 -0.89409 105.63797 13823 ft 194 kts 311°
2026-05-05 18:52 -0.88536 105.62753 13822 ft 194 kts 311°
2026-05-05 18:53 -0.87674 105.61722 13822 ft 194 kts 312°
2026-05-05 18:53 -0.86807 105.60685 13825 ft 193 kts 311°
2026-05-05 18:53 -0.85950 105.59660 13828 ft 193 kts 312°
2026-05-05 18:53 -0.85086 105.58627 13831 ft 193 kts 311°
2026-05-05 18:54 -0.84218 105.57588 13832 ft 193 kts 311°
2026-05-05 18:54 -0.83358 105.56561 13834 ft 193 kts 311°
2026-05-05 18:54 -0.82495 105.55527 13834 ft 193 kts 312°
2026-05-05 18:54 -0.81636 105.54499 13835 ft 193 kts 312°
2026-05-05 18:55 -0.80774 105.53468 13836 ft 193 kts 311°
2026-05-05 18:55 -0.79904 105.52428 13836 ft 194 kts 312°
2026-05-05 18:55 -0.79041 105.51395 13836 ft 194 kts 312°
2026-05-05 18:55 -0.78168 105.50351 13836 ft 194 kts 312°
2026-05-05 18:56 -0.77310 105.49326 13837 ft 193 kts 312°
2026-05-05 18:56 -0.76439 105.48284 13836 ft 193 kts 312°
2026-05-05 18:56 -0.75580 105.47257 13836 ft 193 kts 312°
2026-05-05 18:56 -0.74722 105.46232 13835 ft 193 kts 311°
2026-05-05 18:57 -0.73851 105.45189 13834 ft 193 kts 312°
2026-05-05 18:57 -0.72989 105.44158 13831 ft 194 kts 312°
2026-05-05 18:57 -0.72128 105.43130 13830 ft 194 kts 311°
2026-05-05 18:57 -0.71259 105.42091 13825 ft 194 kts 311°
2026-05-05 18:58 -0.70398 105.41062 13823 ft 194 kts 311°
2026-05-05 18:58 -0.69525 105.40015 13822 ft 194 kts 311°
2026-05-05 18:58 -0.68669 105.38992 13823 ft 194 kts 312°
2026-05-05 18:58 -0.67797 105.37949 13822 ft 194 kts 311°
2026-05-05 18:59 -0.66936 105.36916 13822 ft 194 kts 312°
2026-05-05 18:59 -0.66063 105.35875 13823 ft 194 kts 312°
2026-05-05 18:59 -0.65198 105.34840 13822 ft 194 kts 311°
2026-05-05 18:59 -0.64329 105.33801 13820 ft 194 kts 311°
2026-05-05 19:00 -0.63456 105.32761 13821 ft 193 kts 311°
2026-05-05 19:00 -0.62603 105.31739 13821 ft 193 kts 311°
2026-05-05 19:00 -0.61733 105.30698 13820 ft 193 kts 311°
2026-05-05 19:00 -0.60868 105.29665 13820 ft 193 kts 311°
2026-05-05 19:01 -0.60003 105.28630 13821 ft 193 kts 311°
2026-05-05 19:01 -0.59149 105.27608 13820 ft 193 kts 311°
2026-05-05 19:01 -0.58282 105.26571 13820 ft 193 kts 312°
2026-05-05 19:01 -0.57423 105.25545 13821 ft 193 kts 311°
2026-05-05 19:02 -0.56553 105.24503 13820 ft 194 kts 312°
2026-05-05 19:02 -0.55693 105.23476 13821 ft 193 kts 311°
2026-05-05 19:02 -0.54824 105.22434 13821 ft 194 kts 312°
2026-05-05 19:02 -0.53958 105.21399 13821 ft 193 kts 312°
2026-05-05 19:03 -0.53096 105.20371 13821 ft 193 kts 312°
2026-05-05 19:03 -0.52238 105.19344 13820 ft 193 kts 312°
2026-05-05 19:03 -0.51373 105.18310 13820 ft 193 kts 311°
2026-05-05 19:03 -0.50512 105.17281 13821 ft 193 kts 312°
2026-05-05 19:04 -0.49648 105.16246 13820 ft 193 kts 312°
2026-05-05 19:04 -0.48789 105.15219 13821 ft 193 kts 312°
2026-05-05 19:04 -0.47923 105.14184 13821 ft 193 kts 312°
2026-05-05 19:04 -0.47063 105.13158 13820 ft 193 kts 312°
2026-05-05 19:05 -0.46190 105.12112 13821 ft 194 kts 311°
2026-05-05 19:05 -0.45329 105.11083 13821 ft 194 kts 312°
2026-05-05 19:05 -0.44456 105.10040 13821 ft 194 kts 312°
2026-05-05 19:05 -0.43598 105.09013 13821 ft 194 kts 312°
2026-05-05 19:06 -0.42727 105.07973 13821 ft 193 kts 312°
2026-05-05 19:06 -0.41869 105.06947 13821 ft 193 kts 312°
2026-05-05 19:06 -0.40999 105.05904 13820 ft 193 kts 312°
2026-05-05 19:06 -0.40143 105.04883 13820 ft 193 kts 312°
2026-05-05 19:07 -0.39277 105.03848 13821 ft 193 kts 312°
2026-05-05 19:07 -0.38418 105.02822 13821 ft 193 kts 311°
2026-05-05 19:07 -0.37555 105.01789 13821 ft 193 kts 311°
2026-05-05 19:07 -0.36689 105.00752 13820 ft 193 kts 312°
2026-05-05 19:08 -0.35835 104.99731 13820 ft 193 kts 312°
2026-05-05 19:08 -0.34967 104.98693 13824 ft 193 kts 312°
2026-05-05 19:08 -0.34105 104.97661 13827 ft 193 kts 312°
2026-05-05 19:08 -0.33234 104.96622 13833 ft 193 kts 312°
2026-05-05 19:09 -0.32371 104.95589 13836 ft 193 kts 312°
2026-05-05 19:09 -0.31518 104.94569 13835 ft 194 kts 312°
2026-05-05 19:09 -0.30641 104.93521 13836 ft 194 kts 311°
2026-05-05 19:09 -0.29779 104.92489 13836 ft 194 kts 312°
2026-05-05 19:10 -0.28919 104.91464 13836 ft 193 kts 312°
2026-05-05 19:10 -0.28055 104.90429 13836 ft 193 kts 312°
2026-05-05 19:10 -0.27196 104.89404 13839 ft 193 kts 312°
2026-05-05 19:10 -0.26332 104.88372 13840 ft 192 kts 312°
2026-05-05 19:11 -0.25470 104.87339 13841 ft 192 kts 312°
2026-05-05 19:11 -0.24610 104.86311 13843 ft 193 kts 311°
2026-05-05 19:11 -0.23752 104.85285 13841 ft 193 kts 312°
2026-05-05 19:11 -0.22887 104.84249 13842 ft 193 kts 312°
2026-05-05 19:12 -0.22025 104.83219 13842 ft 194 kts 312°
2026-05-05 19:12 -0.21211 104.82241 13815 ft 156 kts 311°
2026-05-05 19:12 -0.20636 104.81534 13775 ft 110 kts 313°
2026-05-05 19:12 -0.20168 104.81104 13520 ft 98 kts 11°
2026-05-05 19:13 -0.20280 104.81055 11477 ft 175 kts 322°
2026-05-05 19:13 -0.20175 104.80948 9084 ft 181 kts 10°
2026-05-05 19:13 -0.20058 104.81016 6732 ft 176 kts 83°
2026-05-05 19:13 -0.20110 104.81139 4604 ft 168 kts 149°
2026-05-05 19:14 -0.20279 104.81125 2621 ft 164 kts 218°
2026-05-05 19:14 -0.20351 104.80975 772 ft 158 kts 284°
2026-05-05 19:14 -0.20101 104.81006 -1 ft 1 kts 105°
2026-05-05 19:14 -0.20103 104.81012 -1 ft 0 kts 105°
2026-05-05 19:15 -0.20104 104.81015 -1 ft 0 kts 107°
2026-05-05 19:15 -0.20105 104.81017 -1 ft 0 kts 108°
2026-05-05 19:15 -0.20106 104.81020 -1 ft 0 kts 108°
2026-05-05 19:15 -0.20106 104.81021 -1 ft 0 kts 107°
2026-05-05 19:16 -0.20106 104.81022 -1 ft 0 kts 105°
2026-05-05 19:16 -0.20106 104.81023 -1 ft 0 kts 104°
2026-05-05 19:16 -0.20107 104.81024 -1 ft 0 kts 104°
2026-05-05 19:16 -0.20107 104.81025 -1 ft 0 kts 104°
2026-05-05 19:17 -0.20107 104.81026 -1 ft 0 kts 104°
2026-05-05 19:17 -0.20107 104.81027 -1 ft 0 kts 103°
2026-05-05 19:18 -0.20107 104.81028 -1 ft 0 kts 101°
2026-05-05 19:19 -0.20107 104.81029 -1 ft 0 kts 99°
2026-05-05 19:20 -0.20106 104.81029 -1 ft 0 kts 94°
2026-05-05 19:21 -0.20106 104.81030 -1 ft 0 kts 92°
2026-05-05 19:22 -0.20106 104.81031 -1 ft 0 kts 88°
2026-05-05 19:23 -0.20105 104.81031 -1 ft 0 kts 85°
2026-05-05 19:23 -0.20105 104.81032 -1 ft 0 kts 84°
2026-05-05 19:24 -0.20105 104.81033 -1 ft 0 kts 82°
2026-05-05 19:25 -0.20104 104.81033 -1 ft 0 kts 80°
2026-05-05 19:27 -0.20103 104.81034 -1 ft 0 kts 76°
2026-05-05 19:28 -0.20103 104.81035 -1 ft 0 kts 72°
2026-05-05 19:28 -0.20102 104.81036 -1 ft 0 kts 71°
2026-05-05 19:29 -0.20101 104.81036 -1 ft 0 kts 68°
2026-05-05 19:30 -0.20101 104.81037 -1 ft 0 kts 66°
2026-05-05 19:30 -0.20100 104.81037 -1 ft 0 kts 65°
2026-05-05 19:31 -0.20100 104.81038 -1 ft 0 kts 64°
2026-05-05 19:31 -0.20100 104.81039 -1 ft 0 kts 62°
2026-05-05 19:32 -0.20099 104.81039 -1 ft 0 kts 62°
2026-05-05 19:32 -0.20098 104.81039 -1 ft 0 kts 60°
2026-05-05 19:33 -0.20098 104.81040 -1 ft 0 kts 58°
2026-05-05 19:33 -0.20097 104.81040 -1 ft 0 kts 58°
2026-05-05 19:33 -0.20097 104.81041 -1 ft 0 kts 57°
2026-05-05 19:34 -0.20096 104.81042 -1 ft 0 kts 55°
2026-05-05 19:35 -0.20095 104.81042 -1 ft 0 kts 53°
2026-05-05 19:35 -0.20095 104.81043 -1 ft 0 kts 52°
2026-05-05 19:36 -0.20094 104.81043 -1 ft 0 kts 52°
2026-05-05 19:36 -0.20093 104.81044 -1 ft 0 kts 51°
2026-05-05 19:37 -0.20092 104.81045 -1 ft 0 kts 49°
2026-05-05 19:38 -0.20091 104.81046 -1 ft 0 kts 47°
2026-05-05 19:38 -0.20090 104.81046 -1 ft 0 kts 46°
2026-05-05 19:39 -0.20089 104.81046 -1 ft 0 kts 45°
2026-05-05 19:39 -0.20089 104.81047 -1 ft 0 kts 44°
2026-05-05 19:39 -0.20088 104.81047 -1 ft 0 kts 44°
2026-05-05 19:40 -0.20087 104.81048 -1 ft 0 kts 43°
2026-05-05 19:41 -0.20086 104.81049 -1 ft 0 kts 41°
2026-05-05 19:41 -0.20085 104.81049 -1 ft 0 kts 40°
2026-05-05 19:42 -0.20084 104.81049 -1 ft 0 kts 39°
2026-05-05 19:42 -0.20083 104.81050 -1 ft 0 kts 38°
2026-05-05 19:43 -0.20082 104.81050 -1 ft 0 kts 37°
2026-05-05 19:43 -0.20081 104.81050 -1 ft 0 kts 36°
2026-05-05 19:44 -0.20081 104.81051 -1 ft 0 kts 35°
2026-05-05 19:44 -0.20080 104.81051 -1 ft 0 kts 34°
2026-05-05 19:44 -0.20079 104.81051 -1 ft 0 kts 33°
2026-05-05 19:45 -0.20079 104.81052 -1 ft 0 kts 33°
2026-05-05 19:45 -0.20078 104.81052 -1 ft 0 kts 32°
2026-05-05 19:45 -0.20077 104.81052 -1 ft 0 kts 32°
2026-05-05 19:46 -0.20076 104.81052 -1 ft 0 kts 31°
2026-05-05 19:46 -0.20075 104.81052 -1 ft 0 kts 30°
2026-05-05 19:47 -0.20074 104.81053 -1 ft 0 kts 29°
2026-05-05 19:47 -0.20073 104.81053 -1 ft 0 kts 28°
2026-05-05 19:48 -0.20072 104.81053 -1 ft 0 kts 27°
2026-05-05 19:48 -0.20071 104.81054 -1 ft 0 kts 26°
2026-05-05 19:49 -0.20070 104.81054 -1 ft 0 kts 25°
2026-05-05 19:49 -0.20069 104.81054 -1 ft 0 kts 25°
2026-05-05 19:50 -0.20068 104.81054 -1 ft 0 kts 24°
2026-05-05 19:50 -0.20067 104.81055 -1 ft 0 kts 22°
2026-05-05 19:51 -0.20066 104.81055 -1 ft 0 kts 21°
2026-05-05 19:51 -0.20065 104.81055 -1 ft 0 kts 21°
2026-05-05 19:52 -0.20064 104.81055 -1 ft 0 kts 20°
2026-05-05 19:52 -0.20063 104.81055 -1 ft 0 kts 19°
2026-05-05 19:53 -0.20062 104.81055 -1 ft 0 kts 19°
2026-05-05 19:53 -0.20061 104.81055 -1 ft 0 kts 18°
2026-05-05 19:54 -0.20060 104.81055 -1 ft 0 kts 17°
2026-05-05 19:54 -0.20059 104.81055 -1 ft 0 kts 16°
2026-05-05 19:54 -0.20058 104.81055 -1 ft 0 kts 15°
2026-05-05 19:55 -0.20057 104.81055 -1 ft 0 kts 14°
2026-05-05 19:55 -0.20056 104.81055 -1 ft 0 kts 14°
2026-05-05 19:56 -0.20055 104.81055 -1 ft 0 kts 13°
2026-05-05 19:56 -0.20054 104.81055 -1 ft 0 kts 13°
2026-05-05 19:57 -0.20053 104.81055 -1 ft 0 kts 12°
2026-05-05 19:57 -0.20052 104.81055 -1 ft 0 kts 11°
2026-05-05 19:57 -0.20051 104.81055 -1 ft 0 kts 10°
2026-05-05 19:58 -0.20050 104.81055 -1 ft 0 kts
2026-05-05 19:58 -0.20049 104.81055 -1 ft 0 kts
2026-05-05 19:58 -0.20048 104.81055 -1 ft 0 kts
2026-05-05 19:59 -0.20047 104.81055 -1 ft 0 kts
2026-05-05 19:59 -0.20046 104.81055 -1 ft 0 kts
2026-05-05 20:00 -0.20045 104.81055 -1 ft 0 kts
2026-05-05 20:00 -0.20044 104.81054 -1 ft 0 kts
2026-05-05 20:00 -0.20043 104.81054 -1 ft 0 kts
2026-05-05 20:01 -0.20042 104.81054 -1 ft 0 kts
2026-05-05 20:01 -0.20041 104.81054 -1 ft 0 kts
2026-05-05 20:02 -0.20040 104.81054 -1 ft 0 kts
2026-05-05 20:02 -0.20039 104.81054 -1 ft 0 kts
2026-05-05 20:02 -0.20038 104.81053 -1 ft 0 kts
2026-05-05 20:03 -0.20037 104.81053 -1 ft 0 kts
2026-05-05 20:03 -0.20036 104.81053 -1 ft 0 kts
2026-05-05 20:04 -0.20035 104.81053 -1 ft 0 kts
2026-05-05 20:04 -0.20034 104.81052 -1 ft 0 kts
2026-05-05 20:04 -0.20033 104.81052 -1 ft 0 kts
2026-05-05 20:05 -0.20032 104.81052 -1 ft 0 kts
2026-05-05 20:05 -0.20031 104.81052 -1 ft 0 kts
2026-05-05 20:05 -0.20030 104.81052 -1 ft 0 kts
2026-05-05 20:06 -0.20029 104.81052 -1 ft 0 kts
2026-05-05 20:06 -0.20028 104.81052 -1 ft 0 kts
2026-05-05 20:06 -0.20027 104.81051 -1 ft 0 kts 360°
2026-05-05 20:07 -0.20026 104.81051 -1 ft 0 kts 359°
2026-05-05 20:07 -0.20025 104.81051 -1 ft 0 kts 358°
2026-05-05 20:07 -0.20024 104.81051 -1 ft 0 kts 358°
2026-05-05 20:08 -0.20024 104.81050 -1 ft 0 kts 358°
2026-05-05 20:08 -0.20023 104.81050 -1 ft 0 kts 358°
2026-05-05 20:08 -0.20022 104.81050 -1 ft 0 kts 357°
2026-05-05 20:09 -0.20021 104.81049 -1 ft 0 kts 357°
2026-05-05 20:09 -0.20020 104.81049 -1 ft 0 kts 356°
2026-05-05 20:09 -0.20019 104.81049 -1 ft 0 kts 356°
2026-05-05 20:10 -0.20018 104.81049 -1 ft 0 kts 356°
2026-05-05 20:10 -0.20017 104.81049 -1 ft 0 kts 356°
2026-05-05 20:10 -0.20016 104.81049 -1 ft 0 kts 355°
2026-05-05 20:11 -0.20015 104.81048 -1 ft 0 kts 355°
2026-05-05 20:11 -0.20014 104.81048 -1 ft 0 kts 355°
2026-05-05 20:11 -0.20013 104.81047 -1 ft 0 kts 354°
2026-05-05 20:12 -0.20012 104.81047 -1 ft 0 kts 354°
2026-05-05 20:12 -0.20011 104.81047 -1 ft 0 kts 354°
2026-05-05 20:12 -0.20010 104.81046 -1 ft 0 kts 354°
2026-05-05 20:12 -0.20009 104.81046 -1 ft 0 kts 354°
2026-05-05 20:13 -0.20008 104.81046 -1 ft 0 kts 353°
2026-05-05 20:13 -0.20007 104.81046 -1 ft 0 kts 353°
2026-05-05 20:13 -0.20006 104.81046 -1 ft 0 kts 353°
2026-05-05 20:14 -0.20006 104.81045 -1 ft 0 kts 352°
2026-05-05 20:14 -0.20005 104.81045 -1 ft 0 kts 352°
2026-05-05 20:14 -0.20004 104.81045 -1 ft 0 kts 352°
2026-05-05 20:14 -0.20003 104.81044 -1 ft 0 kts 352°
2026-05-05 20:15 -0.20002 104.81044 -1 ft 0 kts 351°
2026-05-05 20:15 -0.20001 104.81043 -1 ft 0 kts 351°
2026-05-05 20:15 -0.20000 104.81043 -1 ft 0 kts 351°
2026-05-05 20:16 -0.20000 104.81042 -1 ft 0 kts 351°
2026-05-05 20:16 -0.19999 104.81042 -1 ft 0 kts 351°
2026-05-05 20:16 -0.19998 104.81042 -1 ft 0 kts 351°
2026-05-05 20:16 -0.19997 104.81042 -1 ft 0 kts 351°
2026-05-05 20:17 -0.19996 104.81041 -1 ft 0 kts 350°
2026-05-05 20:17 -0.19995 104.81041 -1 ft 0 kts 349°
2026-05-05 20:17 -0.19994 104.81041 -1 ft 0 kts 349°
2026-05-05 20:18 -0.19994 104.81040 -1 ft 0 kts 349°
2026-05-05 20:18 -0.19993 104.81040 -1 ft 0 kts 349°
2026-05-05 20:18 -0.19992 104.81039 -1 ft 0 kts 349°
2026-05-05 20:18 -0.19991 104.81039 -1 ft 0 kts 349°
2026-05-05 20:19 -0.19990 104.81039 -1 ft 0 kts 349°
2026-05-05 20:19 -0.19989 104.81039 -1 ft 0 kts 349°
2026-05-05 20:19 -0.19988 104.81038 -1 ft 0 kts 349°
2026-05-05 20:20 -0.19987 104.81038 -1 ft 0 kts 348°
2026-05-05 20:20 -0.19986 104.81037 -1 ft 0 kts 348°
2026-05-05 20:20 -0.19985 104.81037 -1 ft 0 kts 348°
2026-05-05 20:21 -0.19984 104.81036 -1 ft 0 kts 347°
2026-05-05 20:21 -0.19983 104.81036 -1 ft 0 kts 347°
2026-05-05 20:21 -0.19982 104.81036 -1 ft 0 kts 347°
2026-05-05 20:21 -0.19981 104.81036 -1 ft 0 kts 347°
2026-05-05 20:22 -0.19981 104.81035 -1 ft 0 kts 347°
2026-05-05 20:22 -0.19980 104.81035 -1 ft 0 kts 347°
2026-05-05 20:22 -0.19979 104.81035 -1 ft 0 kts 347°
2026-05-05 20:22 -0.19978 104.81034 -1 ft 0 kts 347°
2026-05-05 20:23 -0.19977 104.81033 -1 ft 0 kts 347°
2026-05-05 20:23 -0.19976 104.81033 -1 ft 0 kts 347°
2026-05-05 20:23 -0.19975 104.81033 -1 ft 0 kts 346°
2026-05-05 20:24 -0.19974 104.81033 -1 ft 0 kts 346°
2026-05-05 20:24 -0.19974 104.81032 -1 ft 0 kts 346°
2026-05-05 20:24 -0.19973 104.81032 -1 ft 0 kts 346°
2026-05-05 20:24 -0.19972 104.81031 -1 ft 0 kts 346°
2026-05-05 20:25 -0.19971 104.81031 -1 ft 0 kts 345°
2026-05-05 20:25 -0.19970 104.81031 -1 ft 0 kts 345°
2026-05-05 20:25 -0.19970 104.81030 -1 ft 0 kts 346°
2026-05-05 20:25 -0.19969 104.81030 -1 ft 0 kts 346°
2026-05-05 20:26 -0.19968 104.81029 -1 ft 0 kts 346°
2026-05-05 20:26 -0.19967 104.81029 -1 ft 0 kts 346°
2026-05-05 20:26 -0.19966 104.81029 -1 ft 0 kts 346°
2026-05-05 20:27 -0.19965 104.81028 -1 ft 0 kts 346°
2026-05-05 20:27 -0.19964 104.81028 -1 ft 0 kts 346°
2026-05-05 20:27 -0.19963 104.81027 -1 ft 0 kts 346°
2026-05-05 20:27 -0.19962 104.81027 -1 ft 0 kts 345°
2026-05-05 20:28 -0.19961 104.81027 -1 ft 0 kts 345°
2026-05-05 20:28 -0.19960 104.81026 -1 ft 0 kts 345°
2026-05-05 20:28 -0.19959 104.81026 -1 ft 0 kts 345°
2026-05-05 20:29 -0.19959 104.81025 -1 ft 0 kts 345°
2026-05-05 20:29 -0.19958 104.81025 -1 ft 0 kts 345°
2026-05-05 20:29 -0.19957 104.81024 -1 ft 0 kts 345°
2026-05-05 20:29 -0.19956 104.81024 -1 ft 0 kts 345°
2026-05-05 20:30 -0.19955 104.81023 -1 ft 0 kts 345°
2026-05-05 20:30 -0.19954 104.81023 -1 ft 0 kts 345°
2026-05-05 20:30 -0.19953 104.81023 -1 ft 0 kts 344°
2026-05-05 20:31 -0.19952 104.81022 -1 ft 0 kts 344°
2026-05-05 20:31 -0.19951 104.81022 -1 ft 0 kts 343°
2026-05-05 20:31 -0.19951 104.81021 -1 ft 0 kts 343°
2026-05-05 20:31 -0.19950 104.81021 -1 ft 0 kts 343°
2026-05-05 20:32 -0.19949 104.81020 -1 ft 0 kts 343°
2026-05-05 20:32 -0.19948 104.81020 -1 ft 0 kts 343°
2026-05-05 20:32 -0.19947 104.81020 -1 ft 0 kts 343°
2026-05-05 20:33 -0.19946 104.81019 -1 ft 0 kts 343°
2026-05-05 20:33 -0.19945 104.81019 -1 ft 0 kts 343°
2026-05-05 20:33 -0.19944 104.81018 -1 ft 0 kts 343°
2026-05-05 20:33 -0.19943 104.81018 -1 ft 0 kts 343°
2026-05-05 20:34 -0.19942 104.81017 -1 ft 0 kts 343°
2026-05-05 20:34 -0.19941 104.81016 -1 ft 0 kts 343°
2026-05-05 20:34 -0.19940 104.81016 -1 ft 0 kts 343°
2026-05-05 20:35 -0.19939 104.81016 -1 ft 0 kts 343°
2026-05-05 20:35 -0.19938 104.81015 -1 ft 0 kts 343°
2026-05-05 20:35 -0.19937 104.81015 -1 ft 0 kts 343°
2026-05-05 20:36 -0.19936 104.81014 -1 ft 0 kts 343°
2026-05-05 20:36 -0.19935 104.81014 -1 ft 0 kts 343°
2026-05-05 20:36 -0.19934 104.81014 -1 ft 0 kts 343°
2026-05-05 20:37 -0.19933 104.81014 -1 ft 0 kts 344°
2026-05-05 20:37 -0.19933 104.81013 -1 ft 0 kts 344°
2026-05-05 20:37 -0.19932 104.81012 -1 ft 0 kts 343°
2026-05-05 20:37 -0.19931 104.81012 -1 ft 0 kts 343°
2026-05-05 20:38 -0.19930 104.81011 -1 ft 0 kts 343°
2026-05-05 20:38 -0.19929 104.81011 -1 ft 0 kts 343°
2026-05-05 20:38 -0.19929 104.81010 -1 ft 0 kts 343°
2026-05-05 20:38 -0.19928 104.81010 -1 ft 0 kts 343°
2026-05-05 20:39 -0.19927 104.81010 -1 ft 0 kts 343°
2026-05-05 20:39 -0.19926 104.81010 -1 ft 0 kts 343°
2026-05-05 20:39 -0.19925 104.81009 -1 ft 0 kts 343°
2026-05-05 20:40 -0.19924 104.81009 -1 ft 0 kts 343°
2026-05-05 20:40 -0.19923 104.81008 -1 ft 0 kts 343°
2026-05-05 20:40 -0.19922 104.81008 -1 ft 0 kts 343°
2026-05-05 20:40 -0.19921 104.81007 -1 ft 0 kts 344°
2026-05-05 20:41 -0.19920 104.81007 -1 ft 0 kts 343°
2026-05-05 20:41 -0.19919 104.81006 -1 ft 0 kts 343°
2026-05-05 20:41 -0.19918 104.81006 -1 ft 0 kts 343°
2026-05-05 20:42 -0.19917 104.81005 -1 ft 0 kts 342°
2026-05-05 20:42 -0.19916 104.81004 -1 ft 0 kts 342°
2026-05-05 20:42 -0.19915 104.81004 -1 ft 0 kts 342°
2026-05-05 20:43 -0.19914 104.81004 -1 ft 0 kts 342°
2026-05-05 20:43 -0.19913 104.81003 -1 ft 0 kts 342°
2026-05-05 20:43 -0.19912 104.81003 -1 ft 0 kts 343°
2026-05-05 20:44 -0.19911 104.81002 -1 ft 0 kts 343°
2026-05-05 20:44 -0.19910 104.81002 -1 ft 0 kts 343°
2026-05-05 20:44 -0.19909 104.81001 -1 ft 0 kts 342°
2026-05-05 20:45 -0.19907 104.81001 -1 ft 0 kts 342°
2026-05-05 20:45 -0.19907 104.81000 -1 ft 0 kts 342°
2026-05-05 20:45 -0.19906 104.81000 -1 ft 0 kts 342°
2026-05-05 20:46 -0.19905 104.80999 -1 ft 0 kts 342°
2026-05-05 20:46 -0.19904 104.80999 -1 ft 0 kts 342°
2026-05-05 20:46 -0.19903 104.80998 -1 ft 0 kts 343°
2026-05-05 20:47 -0.19902 104.80997 -1 ft 0 kts 343°
2026-05-05 20:47 -0.19901 104.80997 -1 ft 0 kts 343°
2026-05-05 20:47 -0.19900 104.80997 -1 ft 0 kts 343°
2026-05-05 20:47 -0.19899 104.80996 -1 ft 0 kts 343°
2026-05-05 20:48 -0.19898 104.80996 -1 ft 0 kts 343°
2026-05-05 20:48 -0.19897 104.80995 -1 ft 0 kts 342°
2026-05-05 20:48 -0.19896 104.80994 -1 ft 0 kts 342°
2026-05-05 20:49 -0.19895 104.80994 -1 ft 0 kts 342°
2026-05-05 20:49 -0.19894 104.80994 -1 ft 0 kts 342°
2026-05-05 20:49 -0.19893 104.80993 -1 ft 0 kts 342°
2026-05-05 20:50 -0.19892 104.80993 -1 ft 0 kts 342°
2026-05-05 20:50 -0.19892 104.80992 -1 ft 0 kts 342°
2026-05-05 20:50 -0.19890 104.80992 -1 ft 0 kts 342°
2026-05-05 20:50 -0.19890 104.80991 -1 ft 0 kts 342°
2026-05-05 20:51 -0.19889 104.80991 -1 ft 0 kts 342°
2026-05-05 20:51 -0.19888 104.80991 -1 ft 0 kts 342°
2026-05-05 20:51 -0.19887 104.80990 -1 ft 0 kts 342°
2026-05-05 20:51 -0.19886 104.80990 -1 ft 0 kts 342°
2026-05-05 20:52 -0.19886 104.80989 -1 ft 0 kts 342°
2026-05-05 20:52 -0.19885 104.80989 -1 ft 0 kts 342°
2026-05-05 20:52 -0.19884 104.80989 -1 ft 0 kts 342°
2026-05-05 20:52 -0.19883 104.80988 -1 ft 0 kts 342°
2026-05-05 20:53 -0.19882 104.80988 -1 ft 0 kts 342°
2026-05-05 20:53 -0.19881 104.80987 -1 ft 0 kts 342°
2026-05-05 20:53 -0.19880 104.80987 -1 ft 0 kts 342°
2026-05-05 20:54 -0.19879 104.80986 -1 ft 0 kts 343°
2026-05-05 20:54 -0.19878 104.80986 -1 ft 0 kts 343°
2026-05-05 20:54 -0.19878 104.80985 -1 ft 0 kts 343°
2026-05-05 20:54 -0.19877 104.80985 -1 ft 0 kts 343°
2026-05-05 20:55 -0.19876 104.80984 -1 ft 0 kts 342°
2026-05-05 20:55 -0.19875 104.80984 -1 ft 0 kts 342°
2026-05-05 20:55 -0.19874 104.80984 -1 ft 0 kts 342°
2026-05-05 20:56 -0.19873 104.80983 -1 ft 0 kts 342°
2026-05-05 20:56 -0.19872 104.80983 -1 ft 0 kts 342°
2026-05-05 20:56 -0.19872 104.80982 -1 ft 0 kts 342°
2026-05-05 20:56 -0.19871 104.80982 -1 ft 0 kts 342°
2026-05-05 20:57 -0.19870 104.80981 -1 ft 0 kts 342°
2026-05-05 20:57 -0.19869 104.80981 -1 ft 0 kts 342°
2026-05-05 20:57 -0.19868 104.80981 -1 ft 0 kts 342°
2026-05-05 20:57 -0.19867 104.80980 -1 ft 0 kts 342°
2026-05-05 20:58 -0.19866 104.80980 -1 ft 0 kts 342°
2026-05-05 20:58 -0.19866 104.80979 -1 ft 0 kts 342°
2026-05-05 20:58 -0.19865 104.80979 -1 ft 0 kts 342°
2026-05-05 20:58 -0.19864 104.80978 -1 ft 0 kts 342°
2026-05-05 20:59 -0.19863 104.80978 -1 ft 0 kts 342°
2026-05-05 20:59 -0.19862 104.80978 -1 ft 0 kts 342°
2026-05-05 20:59 -0.19861 104.80977 -1 ft 0 kts 342°
2026-05-05 21:00 -0.19860 104.80976 -1 ft 0 kts 342°
2026-05-05 21:00 -0.19859 104.80976 -1 ft 0 kts 342°
2026-05-05 21:00 -0.19858 104.80975 -1 ft 0 kts 342°
2026-05-05 21:01 -0.19857 104.80975 -1 ft 0 kts 342°
2026-05-05 21:01 -0.19856 104.80974 -1 ft 0 kts 342°
2026-05-05 21:01 -0.19855 104.80974 -1 ft 0 kts 342°
2026-05-05 21:01 -0.19854 104.80973 -1 ft 0 kts 342°
2026-05-05 21:02 -0.19853 104.80973 -1 ft 0 kts 342°
2026-05-05 21:02 -0.19852 104.80972 -1 ft 0 kts 342°
2026-05-05 21:02 -0.19851 104.80971 -1 ft 0 kts 342°
2026-05-05 21:03 -0.19850 104.80971 -1 ft 0 kts 342°
2026-05-05 21:03 -0.19849 104.80971 -1 ft 0 kts 342°
2026-05-05 21:03 -0.19849 104.80970 -1 ft 0 kts 342°
2026-05-05 21:03 -0.19848 104.80970 -1 ft 0 kts 342°
2026-05-05 21:04 -0.19847 104.80969 -1 ft 0 kts 342°
2026-05-05 21:04 -0.19846 104.80969 -1 ft 0 kts 342°
2026-05-05 21:04 -0.19845 104.80969 -1 ft 0 kts 341°
2026-05-05 21:04 -0.19844 104.80969 -1 ft 0 kts 341°
2026-05-05 21:05 -0.19844 104.80968 -1 ft 0 kts 341°
2026-05-05 21:05 -0.19843 104.80968 -1 ft 0 kts 341°
2026-05-05 21:05 -0.19842 104.80967 -1 ft 0 kts 342°
2026-05-05 21:05 -0.19841 104.80967 -1 ft 0 kts 342°
2026-05-05 21:06 -0.19840 104.80966 -1 ft 0 kts 342°
2026-05-05 21:06 -0.19839 104.80965 -1 ft 0 kts 342°
2026-05-05 21:06 -0.19838 104.80965 -1 ft 0 kts 342°
2026-05-05 21:07 -0.19837 104.80965 -1 ft 0 kts 342°
2026-05-05 21:07 -0.19836 104.80964 -1 ft 0 kts 342°
2026-05-05 21:07 -0.19835 104.80964 -1 ft 0 kts 342°
2026-05-05 21:08 -0.19834 104.80963 -1 ft 0 kts 342°
2026-05-05 21:08 -0.19833 104.80962 -1 ft 0 kts 342°
2026-05-05 21:08 -0.19832 104.80962 -1 ft 0 kts 342°
2026-05-05 21:08 -0.19831 104.80962 -1 ft 0 kts 342°
2026-05-05 21:09 -0.19831 104.80961 -1 ft 0 kts 342°
2026-05-05 21:09 -0.19830 104.80961 -1 ft 0 kts 342°
2026-05-05 21:09 -0.19829 104.80960 -1 ft 0 kts 342°
2026-05-05 21:09 -0.19828 104.80960 -1 ft 0 kts 342°
2026-05-05 21:10 -0.19827 104.80959 -1 ft 0 kts 341°
2026-05-05 21:10 -0.19826 104.80959 -1 ft 0 kts 341°
2026-05-05 21:10 -0.19825 104.80959 -1 ft 0 kts 341°
2026-05-05 21:11 -0.19824 104.80958 -1 ft 0 kts 341°
2026-05-05 21:11 -0.19823 104.80957 -1 ft 0 kts 341°
2026-05-05 21:11 -0.19822 104.80957 -1 ft 0 kts 341°
2026-05-05 21:11 -0.19822 104.80956 -1 ft 0 kts 341°
2026-05-05 21:12 -0.19821 104.80956 -1 ft 0 kts 341°
2026-05-05 21:12 -0.19820 104.80956 -1 ft 0 kts 341°
2026-05-05 21:12 -0.19819 104.80956 -1 ft 0 kts 341°
2026-05-05 21:12 -0.19818 104.80955 -1 ft 0 kts 341°
2026-05-05 21:13 -0.19817 104.80954 -1 ft 0 kts 341°
2026-05-05 21:13 -0.19816 104.80954 -1 ft 0 kts 342°
2026-05-05 21:13 -0.19815 104.80953 -1 ft 0 kts 342°
2026-05-05 21:14 -0.19814 104.80952 -1 ft 0 kts 342°
2026-05-05 21:14 -0.19813 104.80952 -1 ft 0 kts 342°
2026-05-05 21:14 -0.19812 104.80952 -1 ft 0 kts 342°
2026-05-05 21:15 -0.19811 104.80951 -1 ft 0 kts 342°
2026-05-05 21:15 -0.19810 104.80951 -1 ft 0 kts 342°
2026-05-05 21:15 -0.19809 104.80950 -1 ft 0 kts 341°
2026-05-05 21:16 -0.19808 104.80949 -1 ft 0 kts 342°
2026-05-05 21:16 -0.19807 104.80949 -1 ft 0 kts 342°
2026-05-05 21:16 -0.19806 104.80949 -1 ft 0 kts 342°
2026-05-05 21:16 -0.19806 104.80948 -1 ft 0 kts 342°
2026-05-05 21:17 -0.19805 104.80948 -1 ft 0 kts 341°
2026-05-05 21:17 -0.19804 104.80947 -1 ft 0 kts 341°
2026-05-05 21:17 -0.19803 104.80947 -1 ft 0 kts 341°
2026-05-05 21:17 -0.19802 104.80946 -1 ft 0 kts 341°
2026-05-05 21:18 -0.19801 104.80946 -1 ft 0 kts 341°
2026-05-05 21:18 -0.19800 104.80945 -1 ft 0 kts 341°
2026-05-05 21:18 -0.19799 104.80945 -1 ft 0 kts 341°
2026-05-05 21:19 -0.19798 104.80944 -1 ft 0 kts 341°
2026-05-05 21:19 -0.19797 104.80944 -1 ft 0 kts 341°
2026-05-05 21:19 -0.19797 104.80943 -1 ft 0 kts 341°
2026-05-05 21:19 -0.19796 104.80943 -1 ft 0 kts 341°
2026-05-05 21:20 -0.19795 104.80943 -1 ft 0 kts 342°
2026-05-05 21:20 -0.19794 104.80943 -1 ft 0 kts 342°
2026-05-05 21:20 -0.19794 104.80942 -1 ft 0 kts 342°
2026-05-05 21:20 -0.19793 104.80942 -1 ft 0 kts 342°
2026-05-05 21:21 -0.19792 104.80941 -1 ft 0 kts 342°
2026-05-05 21:21 -0.19791 104.80940 -1 ft 0 kts 341°
2026-05-05 21:21 -0.19790 104.80940 -1 ft 0 kts 341°
2026-05-05 21:21 -0.19789 104.80939 -1 ft 0 kts 341°
2026-05-05 21:22 -0.19788 104.80939 -1 ft 0 kts 342°
2026-05-05 21:22 -0.19787 104.80939 -1 ft 0 kts 342°
2026-05-05 21:22 -0.19786 104.80938 -1 ft 0 kts 342°
2026-05-05 21:23 -0.19785 104.80938 -1 ft 0 kts 342°
2026-05-05 21:23 -0.19785 104.80937 -1 ft 0 kts 342°
2026-05-05 21:23 -0.19784 104.80937 -1 ft 0 kts 342°
2026-05-05 21:23 -0.19783 104.80936 -1 ft 0 kts 342°
2026-05-05 21:24 -0.19782 104.80936 -1 ft 0 kts 342°
2026-05-05 21:24 -0.19781 104.80935 -1 ft 0 kts 342°
2026-05-05 21:24 -0.19780 104.80935 -1 ft 0 kts 341°
2026-05-05 21:25 -0.19779 104.80934 -1 ft 0 kts 341°
2026-05-05 21:25 -0.19778 104.80934 -1 ft 0 kts 341°
2026-05-05 21:25 -0.19777 104.80933 -1 ft 0 kts 341°
2026-05-05 21:25 -0.19776 104.80933 -1 ft 0 kts 341°
2026-05-05 21:26 -0.19775 104.80933 -1 ft 0 kts 342°
2026-05-05 21:26 -0.19774 104.80932 -1 ft 0 kts 342°
2026-05-05 21:26 -0.19773 104.80931 -1 ft 0 kts 342°
2026-05-05 21:27 -0.19772 104.80930 -1 ft 0 kts 342°
2026-05-05 21:27 -0.19771 104.80930 -1 ft 0 kts 342°
2026-05-05 21:27 -0.19770 104.80930 -1 ft 0 kts 342°
2026-05-05 21:28 -0.19769 104.80930 -1 ft 0 kts 341°
2026-05-05 21:28 -0.19768 104.80929 -1 ft 0 kts 341°
2026-05-05 21:28 -0.19768 104.80928 -1 ft 0 kts 341°
2026-05-05 21:28 -0.19767 104.80928 -1 ft 0 kts 341°
2026-05-05 21:29 -0.19766 104.80927 -1 ft 0 kts 341°
2026-05-05 21:29 -0.19765 104.80927 -1 ft 0 kts 342°
2026-05-05 21:29 -0.19764 104.80926 -1 ft 0 kts 342°
2026-05-05 21:29 -0.19763 104.80926 -1 ft 0 kts 342°
2026-05-05 21:30 -0.19762 104.80926 -1 ft 0 kts 342°
2026-05-05 21:30 -0.19761 104.80925 -1 ft 0 kts 342°
2026-05-05 21:30 -0.19760 104.80924 -1 ft 0 kts 342°
2026-05-05 21:31 -0.19759 104.80924 -1 ft 0 kts 341°
2026-05-05 21:31 -0.19758 104.80924 -1 ft 0 kts 341°
2026-05-05 21:31 -0.19757 104.80923 -1 ft 0 kts 341°
2026-05-05 21:32 -0.19756 104.80923 -1 ft 0 kts 341°
2026-05-05 21:32 -0.19756 104.80922 -1 ft 0 kts 341°
2026-05-05 21:32 -0.19755 104.80922 -1 ft 0 kts 341°
2026-05-05 21:32 -0.19754 104.80921 -1 ft 0 kts 342°
2026-05-05 21:33 -0.19753 104.80921 -1 ft 0 kts 342°
2026-05-05 21:33 -0.19752 104.80920 -1 ft 0 kts 342°
2026-05-05 21:33 -0.19751 104.80920 -1 ft 0 kts 342°
2026-05-05 21:34 -0.19750 104.80920 -1 ft 0 kts 342°
2026-05-05 21:34 -0.19749 104.80919 -1 ft 0 kts 342°
2026-05-05 21:34 -0.19749 104.80918 -1 ft 0 kts 341°
2026-05-05 21:34 -0.19748 104.80918 -1 ft 0 kts 342°
2026-05-05 21:35 -0.19747 104.80917 -1 ft 0 kts 341°
2026-05-05 21:35 -0.19746 104.80917 -1 ft 0 kts 341°
2026-05-05 21:35 -0.19745 104.80917 -1 ft 0 kts 341°
2026-05-05 21:35 -0.19744 104.80916 -1 ft 0 kts 341°
2026-05-05 21:36 -0.19743 104.80916 -1 ft 0 kts 341°
2026-05-05 21:36 -0.19742 104.80915 -1 ft 0 kts 341°
2026-05-05 21:36 -0.19741 104.80914 -1 ft 0 kts 342°
2026-05-05 21:37 -0.19740 104.80914 -1 ft 0 kts 342°
2026-05-05 21:37 -0.19739 104.80913 -1 ft 0 kts 342°
2026-05-05 21:37 -0.19738 104.80913 -1 ft 0 kts 342°
2026-05-05 21:37 -0.19737 104.80913 -1 ft 0 kts 342°
2026-05-05 21:38 -0.19737 104.80912 -1 ft 0 kts 342°
2026-05-05 21:38 -0.19736 104.80912 -1 ft 0 kts 341°
2026-05-05 21:38 -0.19735 104.80911 -1 ft 0 kts 341°
2026-05-05 21:38 -0.19734 104.80911 -1 ft 0 kts 341°
2026-05-05 21:39 -0.19733 104.80911 -1 ft 0 kts 341°
2026-05-05 21:39 -0.19732 104.80910 -1 ft 0 kts 341°
2026-05-05 21:39 -0.19731 104.80910 -1 ft 0 kts 342°
2026-05-05 21:40 -0.19730 104.80909 -1 ft 0 kts 342°
2026-05-05 21:40 -0.19729 104.80908 -1 ft 0 kts 342°
2026-05-05 21:40 -0.19728 104.80907 -1 ft 0 kts 342°
2026-05-05 21:41 -0.19727 104.80907 -1 ft 0 kts 341°
2026-05-05 21:41 -0.19726 104.80907 -1 ft 0 kts 341°
2026-05-05 21:41 -0.19725 104.80906 -1 ft 0 kts 341°
2026-05-05 21:42 -0.19724 104.80906 -1 ft 0 kts 341°
2026-05-05 21:42 -0.19723 104.80905 -1 ft 0 kts 341°
2026-05-05 21:42 -0.19722 104.80905 -1 ft 0 kts 341°
2026-05-05 21:42 -0.19722 104.80904 -1 ft 0 kts 341°
2026-05-05 21:43 -0.19721 104.80904 -1 ft 0 kts 342°
2026-05-05 21:43 -0.19720 104.80904 -1 ft 0 kts 342°
2026-05-05 21:43 -0.19719 104.80904 -1 ft 0 kts 342°
2026-05-05 21:43 -0.19718 104.80903 -1 ft 0 kts 342°
2026-05-05 21:44 -0.19718 104.80902 -1 ft 0 kts 342°
2026-05-05 21:44 -0.19717 104.80902 -1 ft 0 kts 342°
2026-05-05 21:44 -0.19716 104.80901 -1 ft 0 kts 342°
2026-05-05 21:44 -0.19715 104.80901 -1 ft 0 kts 342°
2026-05-05 21:45 -0.19714 104.80901 -1 ft 0 kts 342°
2026-05-05 21:45 -0.19714 104.80900 -1 ft 0 kts 342°
2026-05-05 21:45 -0.19713 104.80900 -1 ft 0 kts 342°
2026-05-05 21:45 -0.19712 104.80899 -1 ft 0 kts 341°
2026-05-05 21:46 -0.19711 104.80899 -1 ft 0 kts 341°
2026-05-05 21:46 -0.19710 104.80898 -1 ft 0 kts 341°
2026-05-05 21:46 -0.19709 104.80898 -1 ft 0 kts 342°
2026-05-05 21:46 -0.19708 104.80898 -1 ft 0 kts 342°
2026-05-05 21:47 -0.19707 104.80898 -1 ft 0 kts 342°
2026-05-05 21:47 -0.19707 104.80897 -1 ft 0 kts 342°
2026-05-05 21:47 -0.19706 104.80897 -1 ft 0 kts 343°
2026-05-05 21:47 -0.19705 104.80896 -1 ft 0 kts 343°
2026-05-05 21:48 -0.19704 104.80896 -1 ft 0 kts 343°
2026-05-05 21:48 -0.19703 104.80895 -1 ft 0 kts 343°
2026-05-05 21:48 -0.19702 104.80895 -1 ft 0 kts 343°
2026-05-05 21:48 -0.19701 104.80894 -1 ft 0 kts 344°
2026-05-05 21:49 -0.19700 104.80894 -1 ft 0 kts 344°
2026-05-05 21:49 -0.19699 104.80894 -1 ft 0 kts 344°
2026-05-05 21:49 -0.19698 104.80894 -1 ft 0 kts 345°
2026-05-05 21:50 -0.19697 104.80893 -1 ft 0 kts 345°
2026-05-05 21:50 -0.19696 104.80893 -1 ft 0 kts 345°
2026-05-05 21:50 -0.19695 104.80892 -1 ft 0 kts 345°
2026-05-05 21:51 -0.19694 104.80891 -1 ft 0 kts 346°
2026-05-05 21:51 -0.19693 104.80891 -1 ft 0 kts 346°
2026-05-05 21:51 -0.19692 104.80891 -1 ft 0 kts 346°
2026-05-05 21:51 -0.19691 104.80891 -1 ft 0 kts 346°
2026-05-05 21:52 -0.19689 104.80890 -1 ft 0 kts 346°
2026-05-05 21:52 -0.19689 104.80889 -1 ft 0 kts 346°
2026-05-05 21:52 -0.19687 104.80889 -1 ft 0 kts 346°
2026-05-05 21:53 -0.19687 104.80888 -1 ft 0 kts 345°
2026-05-05 21:53 -0.19686 104.80888 -1 ft 0 kts 345°
2026-05-05 21:53 -0.19685 104.80888 -1 ft 0 kts 345°
2026-05-05 21:53 -0.19684 104.80887 -1 ft 0 kts 345°
2026-05-05 21:54 -0.19683 104.80887 -1 ft 0 kts 344°
2026-05-05 21:54 -0.19682 104.80887 -1 ft 0 kts 344°
2026-05-05 21:54 -0.19682 104.80886 -1 ft 0 kts 344°
2026-05-05 21:54 -0.19681 104.80886 -1 ft 0 kts 344°
2026-05-05 21:55 -0.19680 104.80885 -1 ft 0 kts 344°
2026-05-05 21:55 -0.19679 104.80885 -1 ft 0 kts 345°
2026-05-05 21:55 -0.19678 104.80885 -1 ft 0 kts 345°
2026-05-05 21:56 -0.19677 104.80884 -1 ft 0 kts 345°
2026-05-05 21:56 -0.19676 104.80884 -1 ft 0 kts 345°
2026-05-05 21:56 -0.19675 104.80883 -1 ft 0 kts 345°
2026-05-05 21:56 -0.19674 104.80883 -1 ft 0 kts 344°
2026-05-05 21:57 -0.19673 104.80882 -1 ft 0 kts 344°
2026-05-05 21:57 -0.19673 104.80881 -1 ft 0 kts 344°
2026-05-05 21:57 -0.19672 104.80881 -1 ft 0 kts 343°
2026-05-05 21:57 -0.19671 104.80881 -1 ft 0 kts 343°
2026-05-05 21:58 -0.19670 104.80881 -1 ft 0 kts 343°
2026-05-05 21:58 -0.19669 104.80880 -1 ft 0 kts 343°
2026-05-05 21:58 -0.19668 104.80880 -1 ft 0 kts 344°
2026-05-05 21:59 -0.19667 104.80879 -1 ft 0 kts 344°
2026-05-05 21:59 -0.19666 104.80878 -1 ft 0 kts 344°
2026-05-05 21:59 -0.19665 104.80878 -1 ft 0 kts 344°
2026-05-05 21:59 -0.19664 104.80878 -1 ft 0 kts 344°
2026-05-05 22:00 -0.19663 104.80877 -1 ft 0 kts 343°
2026-05-05 22:00 -0.19662 104.80877 -1 ft 0 kts 343°
2026-05-05 22:00 -0.19661 104.80876 -1 ft 0 kts 343°
2026-05-05 22:01 -0.19660 104.80876 -1 ft 0 kts 343°
2026-05-05 22:01 -0.19659 104.80875 -1 ft 0 kts 343°
2026-05-05 22:01 -0.19658 104.80875 -1 ft 0 kts 343°
2026-05-05 22:02 -0.19657 104.80875 -1 ft 0 kts 343°
2026-05-05 22:02 -0.19656 104.80874 -1 ft 0 kts 343°
2026-05-05 22:02 -0.19655 104.80874 -1 ft 0 kts 344°
2026-05-05 22:02 -0.19655 104.80873 -1 ft 0 kts 344°
2026-05-05 22:03 -0.19654 104.80873 -1 ft 0 kts 344°
2026-05-05 22:03 -0.19653 104.80872 -1 ft 0 kts 343°
2026-05-05 22:03 -0.19652 104.80872 -1 ft 0 kts 343°
2026-05-05 22:03 -0.19651 104.80872 -1 ft 0 kts 343°
2026-05-05 22:04 -0.19650 104.80871 -1 ft 0 kts 343°
2026-05-05 22:04 -0.19649 104.80870 -1 ft 0 kts 343°
2026-05-05 22:04 -0.19648 104.80870 -1 ft 0 kts 343°
2026-05-05 22:05 -0.19648 104.80869 -1 ft 0 kts 342°
2026-05-05 22:05 -0.19647 104.80869 -1 ft 0 kts 343°
2026-05-05 22:05 -0.19646 104.80868 -1 ft 0 kts 343°
2026-05-05 22:05 -0.19645 104.80868 -1 ft 0 kts 343°
2026-05-05 22:06 -0.19644 104.80868 -1 ft 0 kts 343°
2026-05-05 22:06 -0.19643 104.80868 -1 ft 0 kts 343°
2026-05-05 22:06 -0.19642 104.80867 -1 ft 0 kts 343°
2026-05-05 22:07 -0.19641 104.80866 -1 ft 0 kts 343°
2026-05-05 22:07 -0.19640 104.80866 -1 ft 0 kts 343°
2026-05-05 22:07 -0.19639 104.80866 -1 ft 0 kts 343°
2026-05-05 22:07 -0.19638 104.80866 -1 ft 0 kts 343°
2026-05-05 22:08 -0.19637 104.80865 -1 ft 0 kts 342°
2026-05-05 22:08 -0.19636 104.80864 -1 ft 0 kts 343°
2026-05-05 22:08 -0.19635 104.80864 -1 ft 0 kts 343°
2026-05-05 22:09 -0.19634 104.80863 -1 ft 0 kts 343°
2026-05-05 22:09 -0.19633 104.80862 -1 ft 0 kts 343°
2026-05-05 22:09 -0.19632 104.80862 -1 ft 0 kts 343°
2026-05-05 22:10 -0.19631 104.80862 -1 ft 0 kts 343°
2026-05-05 22:10 -0.19630 104.80861 -1 ft 0 kts 343°
2026-05-05 22:10 -0.19629 104.80861 -1 ft 0 kts 342°
2026-05-05 22:10 -0.19628 104.80860 -1 ft 0 kts 342°
2026-05-05 22:11 -0.19627 104.80859 -1 ft 0 kts 342°
2026-05-05 22:11 -0.19626 104.80859 -1 ft 0 kts 342°
2026-05-05 22:12 -0.19625 104.80859 -1 ft 0 kts 342°
2026-05-05 22:12 -0.19624 104.80858 -1 ft 0 kts 342°
2026-05-05 22:12 -0.19623 104.80858 -1 ft 0 kts 343°
2026-05-05 22:12 -0.19622 104.80857 -1 ft 0 kts 343°
2026-05-05 22:13 -0.19621 104.80857 -1 ft 0 kts 343°
2026-05-05 22:13 -0.19620 104.80856 -1 ft 0 kts 343°
2026-05-05 22:13 -0.19619 104.80856 -1 ft 0 kts 343°
2026-05-05 22:14 -0.19618 104.80855 -1 ft 0 kts 343°
2026-05-05 22:14 -0.19617 104.80855 -1 ft 0 kts 343°
2026-05-05 22:14 -0.19616 104.80854 -1 ft 0 kts 342°
2026-05-05 22:14 -0.19615 104.80854 -1 ft 0 kts 342°
2026-05-05 22:15 -0.19615 104.80853 -1 ft 0 kts 342°
2026-05-05 22:15 -0.19614 104.80853 -1 ft 0 kts 342°
2026-05-05 22:15 -0.19613 104.80853 -1 ft 0 kts 343°
2026-05-05 22:15 -0.19612 104.80853 -1 ft 0 kts 343°
2026-05-05 22:16 -0.19612 104.80852 -1 ft 0 kts 343°
2026-05-05 22:16 -0.19611 104.80852 -1 ft 0 kts 343°
2026-05-05 22:16 -0.19610 104.80851 -1 ft 0 kts 343°
2026-05-05 22:16 -0.19609 104.80851 -1 ft 0 kts 343°
2026-05-05 22:17 -0.19608 104.80850 -1 ft 0 kts 343°
2026-05-05 22:17 -0.19607 104.80850 -1 ft 0 kts 343°
2026-05-05 22:17 -0.19607 104.80849 -1 ft 0 kts 342°
2026-05-05 22:17 -0.19606 104.80849 -1 ft 0 kts 342°
2026-05-05 22:18 -0.19605 104.80849 -1 ft 0 kts 342°
2026-05-05 22:18 -0.19604 104.80849 -1 ft 0 kts 342°
2026-05-05 22:18 -0.19604 104.80848 -1 ft 0 kts 342°
2026-05-05 22:18 -0.19603 104.80848 -1 ft 0 kts 342°
2026-05-05 22:19 -0.19602 104.80847 -1 ft 0 kts 342°
2026-05-05 22:19 -0.19601 104.80846 -1 ft 0 kts 342°
2026-05-05 22:19 -0.19600 104.80846 -1 ft 0 kts 342°
2026-05-05 22:19 -0.19599 104.80846 -1 ft 0 kts 342°
2026-05-05 22:20 -0.19598 104.80846 -1 ft 0 kts 342°
2026-05-05 22:20 -0.19598 104.80845 -1 ft 0 kts 342°
2026-05-05 22:20 -0.19597 104.80844 -1 ft 0 kts 342°
2026-05-05 22:20 -0.19596 104.80844 -1 ft 0 kts 342°
2026-05-05 22:21 -0.19595 104.80843 -1 ft 0 kts 342°
2026-05-05 22:21 -0.19594 104.80843 -1 ft 0 kts 342°
2026-05-05 22:21 -0.19593 104.80843 -1 ft 0 kts 342°
2026-05-05 22:21 -0.19592 104.80843 -1 ft 0 kts 342°
2026-05-05 22:22 -0.19592 104.80842 -1 ft 0 kts 342°
2026-05-05 22:22 -0.19591 104.80842 -1 ft 0 kts 342°
2026-05-05 22:22 -0.19590 104.80842 -1 ft 0 kts 343°
2026-05-05 22:22 -0.19590 104.80841 -1 ft 0 kts 343°
2026-05-05 22:23 -0.19589 104.80841 -1 ft 0 kts 343°
2026-05-05 22:23 -0.19588 104.80840 -1 ft 0 kts 343°
2026-05-05 22:23 -0.19587 104.80840 -1 ft 0 kts 343°
2026-05-05 22:23 -0.19586 104.80840 -1 ft 0 kts 343°
2026-05-05 22:24 -0.19585 104.80839 -1 ft 0 kts 343°
2026-05-05 22:24 -0.19584 104.80839 -1 ft 0 kts 343°
2026-05-05 22:24 -0.19584 104.80838 -1 ft 0 kts 343°
2026-05-05 22:24 -0.19583 104.80838 -1 ft 0 kts 342°
2026-05-05 22:25 -0.19582 104.80837 -1 ft 0 kts 342°
2026-05-05 22:25 -0.19581 104.80837 -1 ft 0 kts 342°
2026-05-05 22:25 -0.19581 104.80836 -1 ft 0 kts 342°
2026-05-05 22:25 -0.19580 104.80836 -1 ft 0 kts 343°
2026-05-05 22:26 -0.19579 104.80836 -1 ft 0 kts 343°
2026-05-05 22:26 -0.19578 104.80836 -1 ft 0 kts 343°
2026-05-05 22:26 -0.19577 104.80835 -1 ft 0 kts 343°
2026-05-05 22:26 -0.19576 104.80834 -1 ft 0 kts 342°
2026-05-05 22:27 -0.19575 104.80833 -1 ft 0 kts 342°
2026-05-05 22:27 -0.19574 104.80833 -1 ft 0 kts 343°
2026-05-05 22:27 -0.19573 104.80833 -1 ft 0 kts 343°
2026-05-05 22:28 -0.19572 104.80833 -1 ft 0 kts 343°
2026-05-05 22:28 -0.19571 104.80832 -1 ft 0 kts 343°
2026-05-05 22:28 -0.19570 104.80831 -1 ft 0 kts 343°
2026-05-05 22:29 -0.19569 104.80831 -1 ft 0 kts 343°
2026-05-05 22:29 -0.19568 104.80830 -1 ft 0 kts 343°
2026-05-05 22:29 -0.19567 104.80830 -1 ft 0 kts 343°
2026-05-05 22:30 -0.19566 104.80830 -1 ft 0 kts 343°
2026-05-05 22:30 -0.19565 104.80829 -1 ft 0 kts 343°
2026-05-05 22:30 -0.19564 104.80829 -1 ft 0 kts 343°
2026-05-05 22:30 -0.19564 104.80828 -1 ft 0 kts 343°
2026-05-05 22:31 -0.19563 104.80828 -1 ft 0 kts 343°
2026-05-05 22:31 -0.19562 104.80827 -1 ft 0 kts 343°
2026-05-05 22:31 -0.19561 104.80827 -1 ft 0 kts 343°
2026-05-05 22:31 -0.19560 104.80827 -1 ft 0 kts 342°
2026-05-05 22:32 -0.19559 104.80826 -1 ft 0 kts 343°
2026-05-05 22:32 -0.19558 104.80826 -1 ft 0 kts 343°
2026-05-05 22:32 -0.19557 104.80825 -1 ft 0 kts 343°
2026-05-05 22:33 -0.19556 104.80824 -1 ft 0 kts 343°
2026-05-05 22:33 -0.19555 104.80824 -1 ft 0 kts 343°
2026-05-05 22:33 -0.19554 104.80823 -1 ft 0 kts 343°
2026-05-05 22:34 -0.19553 104.80823 -1 ft 0 kts 343°
2026-05-05 22:34 -0.19552 104.80823 -1 ft 0 kts 343°
2026-05-05 22:34 -0.19551 104.80822 -1 ft 0 kts 343°
2026-05-05 22:35 -0.19550 104.80821 -1 ft 0 kts 343°
2026-05-05 22:35 -0.19549 104.80821 -1 ft 0 kts 343°
2026-05-05 22:35 -0.19548 104.80821 -1 ft 0 kts 343°
2026-05-05 22:36 -0.19547 104.80820 -1 ft 0 kts 343°
2026-05-05 22:36 -0.19546 104.80820 -1 ft 0 kts 343°
2026-05-05 22:36 -0.19545 104.80819 -1 ft 0 kts 343°
2026-05-05 22:37 -0.19544 104.80818 -1 ft 0 kts 342°
2026-05-05 22:37 -0.19543 104.80818 -1 ft 0 kts 343°
2026-05-05 22:37 -0.19542 104.80817 -1 ft 0 kts 343°
2026-05-05 22:37 -0.19541 104.80817 -1 ft 0 kts 343°
2026-05-05 22:38 -0.19540 104.80817 -1 ft 0 kts 343°
2026-05-05 22:38 -0.19539 104.80817 -1 ft 0 kts 343°
2026-05-05 22:38 -0.19538 104.80816 -1 ft 0 kts 343°
2026-05-05 22:39 -0.19537 104.80816 -1 ft 0 kts 343°
2026-05-05 22:39 -0.19537 104.80815 -1 ft 0 kts 343°
2026-05-05 22:39 -0.19536 104.80815 -1 ft 0 kts 343°
2026-05-05 22:39 -0.19535 104.80814 -1 ft 0 kts 343°
2026-05-05 22:40 -0.19534 104.80814 -1 ft 0 kts 343°
2026-05-05 22:40 -0.19533 104.80813 -1 ft 0 kts 343°
2026-05-05 22:40 -0.19532 104.80813 -1 ft 0 kts 343°
2026-05-05 22:41 -0.19531 104.80812 -1 ft 0 kts 343°
2026-05-05 22:41 -0.19530 104.80812 -1 ft 0 kts 343°
2026-05-05 22:41 -0.19529 104.80811 -1 ft 0 kts 343°
2026-05-05 22:41 -0.19528 104.80811 -1 ft 0 kts 343°
2026-05-05 22:42 -0.19527 104.80810 -1 ft 0 kts 343°
2026-05-05 22:42 -0.19526 104.80810 -1 ft 0 kts 343°
2026-05-05 22:42 -0.19525 104.80810 -1 ft 0 kts 343°
2026-05-05 22:43 -0.19524 104.80809 -1 ft 0 kts 343°
2026-05-05 22:43 -0.19523 104.80809 -1 ft 0 kts 343°
2026-05-05 22:43 -0.19522 104.80808 -1 ft 0 kts 343°
2026-05-05 22:44 -0.19521 104.80808 -1 ft 0 kts 343°
2026-05-05 22:44 -0.19520 104.80808 -1 ft 0 kts 343°
2026-05-05 22:44 -0.19519 104.80807 -1 ft 0 kts 343°
2026-05-05 22:45 -0.19518 104.80807 -1 ft 0 kts 343°
2026-05-05 22:45 -0.19517 104.80806 -1 ft 0 kts 343°
2026-05-05 22:45 -0.19516 104.80805 -1 ft 0 kts 344°
2026-05-05 22:46 -0.19515 104.80805 -1 ft 0 kts 344°
2026-05-05 22:46 -0.19515 104.80804 -1 ft 0 kts 344°
2026-05-05 22:46 -0.19514 104.80804 -1 ft 0 kts 344°
2026-05-05 22:46 -0.19513 104.80804 -1 ft 0 kts 344°
2026-05-05 22:47 -0.19512 104.80804 -1 ft 0 kts 343°
2026-05-05 22:47 -0.19511 104.80803 -1 ft 0 kts 343°
2026-05-05 22:47 -0.19510 104.80803 -1 ft 0 kts 343°
2026-05-05 22:47 -0.19509 104.80802 -1 ft 0 kts 343°
2026-05-05 22:48 -0.19508 104.80801 -1 ft 0 kts 343°
2026-05-05 22:48 -0.19507 104.80801 -1 ft 0 kts 343°
2026-05-05 22:48 -0.19506 104.80801 -1 ft 0 kts 344°
2026-05-05 22:49 -0.19505 104.80801 -1 ft 0 kts 344°
2026-05-05 22:49 -0.19504 104.80800 -1 ft 0 kts 344°
2026-05-05 22:49 -0.19503 104.80800 -1 ft 0 kts 344°
2026-05-05 22:49 -0.19503 104.80799 -1 ft 0 kts 344°
2026-05-05 22:50 -0.19502 104.80799 -1 ft 0 kts 343°
2026-05-05 22:50 -0.19501 104.80798 -1 ft 0 kts 343°
2026-05-05 22:50 -0.19500 104.80798 -1 ft 0 kts 344°
2026-05-05 22:51 -0.19499 104.80798 -1 ft 0 kts 343°
2026-05-05 22:51 -0.19498 104.80797 -1 ft 0 kts 343°
2026-05-05 22:51 -0.19497 104.80797 -1 ft 0 kts 343°
2026-05-05 22:51 -0.19496 104.80796 -1 ft 0 kts 343°
2026-05-05 22:52 -0.19495 104.80795 -1 ft 0 kts 344°
2026-05-05 22:52 -0.19494 104.80795 -1 ft 0 kts 344°
2026-05-05 22:52 -0.19493 104.80795 -1 ft 0 kts 344°
2026-05-05 22:53 -0.19492 104.80795 -1 ft 0 kts 344°
2026-05-05 22:53 -0.19491 104.80794 -1 ft 0 kts 344°
2026-05-05 22:53 -0.19490 104.80794 -1 ft 0 kts 344°
2026-05-05 22:54 -0.19490 104.80793 -1 ft 0 kts 344°
2026-05-05 22:54 -0.19489 104.80793 -1 ft 0 kts 344°
2026-05-05 22:54 -0.19488 104.80792 -1 ft 0 kts 344°
2026-05-05 22:54 -0.19487 104.80792 -1 ft 0 kts 344°
2026-05-05 22:55 -0.19486 104.80791 -1 ft 0 kts 344°
2026-05-05 22:55 -0.19485 104.80791 -1 ft 0 kts 344°
2026-05-05 22:55 -0.19484 104.80791 -1 ft 0 kts 345°
2026-05-05 22:56 -0.19483 104.80790 -1 ft 0 kts 345°
2026-05-05 22:56 -0.19482 104.80790 -1 ft 0 kts 345°
2026-05-05 22:56 -0.19481 104.80789 -1 ft 0 kts 345°
2026-05-05 22:57 -0.19480 104.80788 -1 ft 0 kts 345°
2026-05-05 22:57 -0.19479 104.80788 -1 ft 0 kts 344°
2026-05-05 22:57 -0.19478 104.80788 -1 ft 0 kts 344°
2026-05-05 22:58 -0.19477 104.80787 -1 ft 0 kts 344°
2026-05-05 22:58 -0.19476 104.80787 -1 ft 0 kts 344°